GFSNW_700_spd_021.txt.gz
Wind_Speed
13 12 12 13 13 13 13 12 10 13 14 15 14 11 11 12 12 10 8 8 6 5 5 3 3 2 1 3 5 6 10 5 5 9 4 2 1 3 2 1 2 5 7 16
14 12 12 13 14 13 12 11 10 13 14 13 15 13 12 12 12 10 8 8 7 7 5 3 3 2 1 4 6 9 12 6 7 1 1 2 3 6 12 12 8 13 5 12
16 14 13 13 13 12 12 10 11 15 14 10 11 12 12 12 11 9 8 7 7 6 5 4 3 2 3 6 8 11 12 6 7 8 12 17 22 20 18 15 11 14 28 33
17 16 14 13 12 11 10 12 9 14 15 12 12 13 12 11 11 8 9 8 5 6 5 3 4 3 4 7 11 10 12 11 15 14 15 19 23 20 20 24 26 20 27 29
18 17 15 13 12 11 10 10 6 12 10 13 13 12 12 11 10 9 9 6 7 5 4 4 4 4 6 5 9 12 16 11 17 21 15 14 26 29 25 13 11 20 21 28
19 18 16 14 12 11 10 11 8 10 11 13 13 13 13 12 10 8 8 6 6 6 5 5 5 7 5 9 12 13 15 13 14 14 13 18 23 3 7 21 26 25 24 29
20 19 17 15 14 12 11 11 11 12 11 12 12 12 11 10 9 8 7 7 6 6 6 8 9 8 7 10 9 11 15 15 13 13 19 3 13 16 28 26 17 20 27 27
21 20 19 18 16 14 12 11 11 11 11 12 13 12 12 11 10 10 8 7 7 7 8 10 7 7 7 8 13 10 12 13 12 7 6 19 30 11 14 22 31 23 21 27
23 22 21 19 18 16 15 13 12 12 11 12 13 13 12 12 11 11 10 9 9 9 10 10 5 4 9 6 7 12 12 14 16 14 6 5 13 23 24 24 30 13 31 32
26 24 23 21 19 18 17 15 14 13 11 11 10 13 13 12 13 12 10 11 11 11 13 14 13 13 15 8 8 11 14 16 21 21 13 20 24 16 16 12 23 26 39 42
27 26 24 22 21 19 18 17 15 14 12 12 11 13 14 14 15 14 12 11 13 13 13 11 13 11 13 14 16 15 19 16 20 13 8 10 7 22 27 37 43 49 42 41
28 27 25 23 22 21 20 19 17 16 14 12 13 16 16 17 17 16 16 17 14 11 12 10 11 15 18 19 23 22 23 24 25 24 27 33 39 42 37 39 39 46 42 46
29 27 26 25 24 22 21 21 20 19 17 17 18 18 17 18 19 19 18 18 17 18 20 24 25 28 27 25 21 22 32 30 34 33 35 33 36 28 35 40 44 43 35 36
30 29 28 27 26 24 24 23 21 20 19 20 20 16 17 22 23 22 21 20 20 20 24 29 31 31 27 27 26 32 40 39 29 35 33 31 35 35 40 38 44 31 35 37
32 31 30 28 27 26 25 23 23 22 20 16 13 14 20 23 22 20 25 23 22 25 31 34 34 34 31 38 41 45 22 27 31 39 33 32 41 35 43 29 35 40 30 28
31 31 29 29 28 27 26 26 26 24 22 24 25 25 25 25 26 26 22 30 30 29 30 33 35 34 31 32 28 22 32 26 36 36 33 33 32 37 23 37 35 32 28 25
34 32 30 28 27 28 28 27 24 21 21 23 24 26 26 26 26 25 26 28 26 27 32 35 29 27 31 31 35 38 39 35 34 26 26 32 32 27 32 33 33 31 28 28
34 32 29 26 26 28 29 28 26 23 23 23 18 23 24 23 20 20 22 24 29 34 35 33 32 27 28 33 35 30 33 34 28 27 34 31 26 29 30 30 29 28 32 42
36 33 30 30 31 33 33 28 26 25 24 26 25 23 16 17 15 22 24 25 30 28 26 25 25 24 21 21 28 33 30 28 31 32 27 23 25 27 27 29 35 41 46 51
36 33 33 33 35 37 33 28 30 30 31 34 33 32 33 29 30 23 24 24 17 16 21 20 23 30 30 33 30 27 27 26 24 24 25 26 27 31 36 40 44 49 53 56
41 43 42 43 42 41 37 31 21 22 19 25 35 35 31 27 20 18 12 8 7 10 16 17 14 20 26 25 25 25 26 24 24 25 27 29 34 38 41 44 49 54 51 45
44 48 45 41 31 22 18 17 15 12 17 10 12 16 20 18 13 12 11 11 8 8 10 8 7 19 21 21 21 23 22 21 23 24 29 34 36 39 45 50 47 43 43 43
31 28 29 18 16 11 12 14 10 10 10 8 8 8 12 14 14 9 10 8 9 9 7 9 21 21 19 17 17 18 18 19 23 30 34 38 42 46 43 40 39 41 42 42
10 6 5 9 6 7 7 7 5 7 6 8 10 14 11 13 10 12 6 9 7 6 10 20 20 17 14 13 14 19 21 25 31 37 42 43 41 38 37 37 38 40 41 41
6 1 0 2 3 5 4 4 4 7 10 13 11 12 11 10 9 7 9 5 6 8 13 14 12 11 13 16 21 24 29 35 40 41 39 38 37 36 35 36 38 38 40 41
8 7 6 4 7 8 8 7 7 8 9 9 9 9 6 9 7 7 8 6 8 15 17 14 11 14 19 23 28 33 38 39 38 38 36 33 33 33 35 36 37 37 38 41
7 8 8 6 4 4 6 7 7 7 9 9 8 7 8 6 7 9 13 21 21 19 12 12 18 24 30 33 35 33 35 35 32 30 30 30 30 32 32 33 35 36 36 38

GFSNW_700_spd_027.txt.gz
Wind_Speed
15 17 17 17 17 19 21 21 9 21 21 17 13 10 8 13 17 16 12 8 8 8 8 6 4 6 5 4 3 1 4 1 2 3 5 4 3 5 5 7 8 7 9 15
15 16 18 18 18 18 20 11 12 21 22 13 15 15 12 14 16 11 9 10 9 9 9 4 6 6 6 3 3 2 1 1 4 3 1 3 3 6 7 8 9 15 13 12
15 15 17 19 19 19 19 10 11 18 23 14 14 14 13 17 18 15 13 10 10 10 7 5 8 6 6 5 4 2 1 1 2 6 9 11 13 14 14 15 17 18 19 22
17 16 16 18 19 19 17 13 11 16 19 15 13 13 13 13 16 15 12 11 8 9 7 7 6 6 5 6 6 5 2 3 5 8 12 14 17 18 19 21 23 24 27 26
19 16 15 16 17 18 18 13 13 18 13 16 14 15 13 14 12 11 13 9 12 9 6 5 8 6 5 4 7 4 6 4 11 14 8 15 22 20 17 20 17 16 19 21
21 19 17 17 17 16 17 16 15 18 14 18 14 14 14 14 13 14 10 12 11 12 9 9 8 10 9 7 4 5 8 7 8 6 15 23 11 2 10 9 10 16 16 16
22 20 18 17 16 15 14 15 13 16 17 18 13 15 13 14 12 12 14 10 11 11 8 8 8 9 9 8 11 11 13 10 9 9 13 3 6 21 20 17 13 12 15 17
23 21 19 18 16 14 14 14 14 14 15 19 17 15 16 16 14 11 14 12 9 8 8 7 5 6 6 9 11 11 10 11 7 4 7 20 14 5 7 12 20 14 10 7
23 22 20 19 17 16 14 13 14 15 13 17 17 16 14 16 16 13 12 12 10 10 9 7 5 4 3 3 5 7 8 11 10 8 5 4 8 11 16 13 17 6 9 25
23 22 21 20 19 17 15 13 13 13 14 15 17 17 17 15 13 13 14 13 12 12 11 9 8 6 6 4 5 7 10 10 14 13 10 13 14 15 9 9 10 19 33 33
25 22 21 20 20 18 16 15 14 13 13 12 16 17 16 15 15 15 16 14 16 15 13 11 11 9 8 7 6 10 7 7 9 8 7 8 5 13 14 18 29 31 27 42
27 24 22 21 20 19 17 16 15 14 14 10 14 14 15 16 18 16 15 15 11 12 11 13 10 10 10 11 6 7 8 11 9 10 11 16 26 29 33 27 32 32 37 41
30 27 24 22 21 20 19 17 15 15 15 14 15 16 16 17 17 17 18 19 20 18 19 16 16 18 18 16 16 15 16 13 26 24 22 19 27 26 32 32 34 39 32 30
31 29 27 25 23 22 20 19 17 16 15 17 16 15 19 19 18 18 18 20 19 21 21 23 24 24 21 19 17 20 25 19 22 28 27 31 32 28 25 33 36 33 27 29
32 31 29 27 26 24 22 21 20 19 18 11 14 20 21 19 17 17 18 19 21 23 24 26 26 25 27 32 32 36 31 22 22 26 30 33 26 32 32 34 28 26 26 24
29 29 28 28 28 26 23 23 23 21 20 21 22 21 21 17 17 18 21 24 26 25 26 27 28 29 24 24 32 32 29 30 27 29 27 30 33 35 28 29 23 23 24 28
31 29 28 28 28 27 26 26 23 22 22 22 23 24 27 26 25 25 25 26 28 27 29 33 32 32 29 35 43 30 33 32 30 28 26 29 25 27 31 27 23 25 28 31
31 30 29 28 29 29 27 26 24 22 21 22 17 15 18 19 22 23 25 28 28 31 32 33 31 30 30 35 36 30 28 22 25 27 25 23 28 25 21 19 23 28 32 38
31 29 28 29 30 30 26 24 24 26 26 24 28 29 23 23 22 21 22 23 24 26 29 31 29 29 24 27 29 31 27 27 29 22 23 26 22 19 20 22 27 34 40 42
32 31 31 33 32 28 23 24 25 29 31 33 37 34 28 22 17 17 20 20 18 19 24 21 25 35 33 29 27 27 26 24 25 28 24 21 18 20 23 28 35 41 41 39
38 38 39 39 32 28 23 24 19 23 29 36 41 41 37 31 27 25 22 18 11 12 18 16 12 21 23 19 22 19 20 21 22 21 18 18 20 23 29 35 39 39 39 37
43 41 42 39 35 24 24 27 25 22 25 29 25 29 29 30 30 30 25 25 12 10 12 10 7 16 13 12 14 16 19 22 20 17 18 20 24 29 36 37 37 37 35 32
42 45 42 26 19 18 15 22 25 30 32 28 27 27 25 28 34 25 14 11 10 9 8 7 9 15 14 13 15 17 20 18 16 17 20 25 31 34 34 35 34 33 32 32
23 28 20 18 8 11 13 19 26 25 26 23 17 21 27 28 22 11 8 10 7 6 6 8 14 13 14 13 13 14 13 16 18 22 28 31 32 32 33 33 32 32 31 32
13 10 7 10 9 9 11 15 17 18 16 15 20 24 17 12 7 8 7 5 5 5 5 10 9 8 8 9 11 14 15 19 25 30 32 31 32 33 33 32 31 32 32 32
5 4 9 14 15 16 16 16 18 15 14 15 10 7 5 6 4 5 6 4 4 8 15 13 11 11 13 14 15 17 22 28 32 30 31 32 33 34 33 31 31 31 32 33
6 11 13 13 9 9 8 10 10 11 7 7 5 3 5 3 3 4 7 17 20 15 13 13 14 18 18 17 21 26 31 30 29 31 33 34 34 34 32 32 32 34 35 35

GFSNW_700_spd_030.txt.gz
Wind_Speed
17 17 16 16 19 20 19 17 9 11 20 19 17 9 9 8 8 15 13 7 6 7 7 6 5 8 6 5 7 3 3 4 1 3 3 4 3 2 3 3 6 8 11 18
16 18 17 17 19 21 21 18 8 11 21 12 16 10 10 7 8 8 6 6 7 9 8 5 7 8 7 6 6 7 6 2 2 7 0 5 4 4 7 8 11 9 8 9
16 18 19 18 19 21 23 9 7 18 24 9 15 10 9 11 15 14 8 6 7 9 8 5 8 5 7 6 5 4 3 2 1 2 6 9 10 12 14 15 16 17 21 22
16 17 19 20 21 26 22 10 6 18 25 12 11 13 9 10 16 10 9 6 6 8 7 6 6 6 5 6 6 4 3 2 3 6 9 11 12 16 17 20 20 23 23 21
17 16 18 20 21 22 20 9 7 16 6 14 11 14 11 12 9 8 11 7 9 9 7 5 8 6 3 2 5 3 5 4 8 13 5 10 23 20 9 9 13 15 12 15
19 17 17 19 19 19 19 15 12 15 14 15 14 14 10 13 14 13 9 10 13 13 13 14 16 14 12 7 2 3 6 4 7 5 11 23 4 4 11 15 12 10 14 12
20 19 17 17 17 17 16 16 13 12 13 12 12 10 12 13 11 9 9 12 18 20 12 9 10 11 10 7 9 9 9 8 7 8 10 2 4 17 7 7 7 10 11 13
21 19 18 17 16 15 13 13 14 12 14 12 14 12 12 18 16 14 18 18 16 11 10 9 7 7 7 7 11 8 8 6 5 3 4 15 5 6 11 12 16 10 8 11
22 20 18 17 15 14 13 12 13 12 12 15 12 11 18 16 18 18 13 15 13 12 12 10 7 5 4 5 3 6 6 8 8 7 2 4 5 10 13 13 13 11 16 18
22 20 18 17 16 14 13 12 12 13 13 13 16 15 15 11 11 12 13 13 13 13 12 12 9 8 7 6 8 6 6 8 11 9 7 10 12 14 15 8 8 19 21 30
22 21 19 18 16 15 14 13 13 12 12 10 17 18 20 18 14 15 13 14 16 16 13 10 11 10 12 11 7 8 7 6 5 4 6 8 5 9 17 16 21 32 31 33
24 21 19 18 17 17 16 15 14 13 13 8 12 15 16 18 20 15 15 12 13 11 10 12 9 11 11 14 8 7 10 13 8 9 10 14 19 21 22 31 34 33 37 33
25 23 21 19 18 17 17 15 15 14 13 13 13 15 16 16 17 18 17 17 15 16 18 16 14 14 12 15 17 16 16 16 20 19 24 18 23 34 34 35 37 37 36 31
28 25 23 21 20 19 18 17 16 16 14 16 14 13 17 16 18 19 20 19 19 21 19 20 20 22 19 22 21 19 21 20 24 27 24 21 31 31 33 33 30 34 27 27
30 28 26 24 22 20 19 19 18 17 18 10 15 19 17 17 17 19 19 21 21 21 22 23 23 25 25 29 29 32 29 30 24 25 25 28 28 32 31 31 33 27 26 23
31 29 28 26 25 23 22 22 22 20 20 20 21 19 18 15 17 21 22 22 23 25 25 25 24 25 23 20 27 32 25 18 28 31 29 28 28 30 29 27 26 24 22 23
30 30 29 27 27 25 25 25 22 23 21 21 21 23 24 22 21 23 25 24 24 25 26 30 27 26 26 32 39 33 29 31 36 30 28 26 24 30 22 23 21 20 21 25
29 28 26 26 26 26 25 24 23 20 21 22 17 16 17 19 22 23 26 27 27 29 30 33 31 29 28 29 37 33 28 32 25 24 26 27 24 21 21 18 19 22 26 32
30 28 27 27 27 27 23 23 24 25 25 24 29 28 23 24 24 21 21 23 25 27 30 32 29 32 31 34 34 31 33 27 27 25 23 21 23 20 18 19 22 26 31 37
29 26 27 28 30 25 24 24 25 29 31 33 35 32 28 24 21 20 19 22 19 19 24 22 28 38 34 33 31 32 30 25 22 21 23 23 20 19 20 21 25 32 36 36
31 31 32 30 28 22 24 20 20 23 30 37 40 39 35 30 28 23 18 15 10 13 21 19 18 29 29 23 22 19 22 24 20 21 22 19 18 19 21 26 32 36 36 36
36 36 33 29 27 17 20 19 18 22 23 31 26 25 29 31 30 26 22 23 13 13 15 10 12 19 19 12 12 13 15 16 18 18 17 16 17 22 29 33 35 34 35 34
27 39 35 25 18 16 13 21 26 29 28 22 22 23 24 24 21 17 14 12 13 15 9 9 13 12 12 12 10 11 14 15 15 15 16 19 23 29 33 33 33 34 35 34
20 21 15 13 8 12 14 20 24 29 28 28 26 20 14 25 20 18 10 11 8 7 6 5 7 8 8 10 10 11 13 12 14 19 22 26 30 33 31 32 34 35 34 32
12 7 6 10 10 10 14 17 19 19 19 18 16 20 25 21 15 10 9 6 5 6 3 7 1 7 10 7 7 12 16 19 20 24 28 32 32 31 32 34 34 33 32 31
4 5 3 3 6 8 9 10 10 11 13 16 19 16 6 6 5 6 5 4 4 4 5 12 9 5 9 14 16 17 18 21 26 30 31 30 32 33 33 33 32 31 31 31
4 7 8 12 12 13 11 10 10 12 10 9 6 4 4 3 2 4 3 1 8 12 13 14 14 15 17 17 17 20 24 27 28 28 29 31 32 33 34 33 30 30 32 34

GFSNW_700_spd_033.txt.gz
Wind_Speed
20 22 22 24 25 24 22 19 16 17 21 21 23 22 5 6 7 13 14 8 10 6 11 6 7 9 6 8 10 7 8 8 7 5 5 5 4 1 2 2 3 3 3 8
20 22 22 23 24 24 23 19 13 12 21 21 21 12 7 5 6 14 13 15 12 8 12 6 8 11 8 11 9 8 11 8 7 3 1 3 4 2 8 8 11 14 4 8
21 22 21 22 24 25 23 18 14 13 19 17 18 10 10 12 13 12 10 10 13 13 10 7 11 10 10 7 7 8 8 10 5 5 1 4 5 8 9 10 13 14 18 20
21 22 21 22 25 27 26 13 12 13 25 17 15 14 7 13 16 15 15 9 9 13 9 6 8 7 9 7 8 7 6 9 8 9 8 10 10 12 17 18 16 14 18 12
21 22 22 23 26 30 22 13 14 12 11 19 17 16 14 11 8 11 10 5 9 11 11 11 10 7 4 5 6 9 9 7 7 7 6 8 16 5 4 0 6 9 11 7
21 21 23 24 29 28 19 12 12 19 11 23 17 14 14 15 14 8 11 10 15 15 14 14 15 13 10 9 7 8 7 5 4 4 5 12 4 5 8 12 12 12 8 10
22 21 22 24 25 26 23 16 15 17 19 20 19 14 15 12 15 12 13 13 19 19 16 13 13 12 11 11 10 10 8 6 5 5 6 2 4 11 11 5 5 11 13 17
22 20 22 21 21 21 19 16 15 12 13 16 16 12 13 14 17 16 18 20 17 18 18 13 11 11 10 12 13 13 12 8 4 4 4 12 4 5 12 14 16 12 15 20
23 20 19 19 19 17 15 13 12 12 13 17 17 16 16 18 20 18 20 19 16 18 15 13 8 6 5 6 5 12 10 10 9 8 4 6 9 7 13 15 15 18 18 20
22 20 19 17 16 15 14 12 12 13 12 17 19 17 19 20 21 19 18 17 16 14 14 13 10 10 10 7 7 10 13 11 13 13 7 9 11 14 14 11 14 18 20 25
21 19 18 17 16 15 14 13 12 11 12 12 17 19 19 15 13 15 15 16 17 16 15 13 13 11 13 13 12 10 10 7 8 8 8 9 9 13 15 21 25 27 29 34
21 19 18 17 16 16 15 13 12 11 11 9 16 18 17 19 17 15 13 15 13 13 11 13 10 12 11 16 11 16 13 15 12 12 10 19 23 23 28 32 30 32 36 37
22 20 18 17 17 16 15 14 12 11 11 11 13 15 16 18 21 18 17 15 14 16 16 15 13 13 14 15 17 18 13 16 19 15 15 17 25 27 29 33 36 33 35 30
23 21 19 17 16 15 15 15 14 13 13 14 12 13 15 16 17 17 17 17 17 17 17 17 19 19 16 20 20 22 21 22 27 28 25 27 32 31 32 34 34 36 33 28
25 23 21 19 17 16 16 16 16 16 15 6 16 17 15 16 18 18 19 19 19 20 21 22 22 21 23 27 29 29 24 27 29 33 30 29 28 27 30 32 34 31 27 24
27 25 23 21 19 19 18 17 18 17 17 17 18 15 13 16 20 20 20 19 20 21 23 24 25 24 24 21 29 29 25 25 25 30 29 28 30 30 35 30 25 26 23 20
28 26 25 23 22 22 21 20 19 20 19 20 19 20 20 19 20 21 21 20 21 22 25 29 26 24 26 32 37 32 29 33 32 30 29 30 30 31 26 26 21 21 19 20
28 27 26 25 25 25 24 22 21 20 18 21 15 12 14 16 19 20 21 23 24 27 28 31 30 28 28 34 36 32 27 29 29 24 23 26 26 26 20 19 20 19 19 21
26 26 26 25 27 25 23 23 23 23 24 21 24 24 20 21 20 19 20 21 24 27 29 30 29 30 30 33 34 32 31 30 25 20 24 25 22 20 17 19 19 20 21 27
26 25 25 25 23 20 21 22 23 26 28 30 29 26 25 22 21 19 18 19 19 19 22 19 26 35 31 30 30 30 29 26 22 26 24 21 20 18 18 17 19 22 28 32
29 29 27 25 23 22 23 20 18 19 24 30 34 33 31 30 27 23 21 15 11 15 18 17 19 33 30 24 21 22 21 20 21 20 19 18 18 18 16 17 23 29 33 33
29 29 25 21 21 17 13 15 19 19 18 22 21 21 24 29 28 25 19 19 12 11 12 10 12 23 18 13 14 17 16 16 18 16 13 15 16 16 20 25 31 33 32 32
32 30 25 18 16 14 13 18 13 16 22 22 19 17 19 22 21 17 16 12 15 18 10 11 15 13 15 13 10 8 8 10 9 11 16 16 18 22 27 31 32 32 32 33
19 21 15 11 7 13 15 17 18 25 21 18 20 18 12 19 15 16 9 12 10 8 6 4 8 10 7 1 3 3 4 8 14 15 18 21 24 28 30 29 31 32 32 32
12 8 8 11 11 10 10 14 14 15 17 18 18 18 20 18 16 10 9 6 5 5 3 8 8 5 5 4 2 10 14 14 17 19 21 25 29 28 28 29 30 31 32 31
8 6 5 3 5 9 11 12 11 10 10 11 16 15 8 9 5 5 5 5 4 4 3 7 8 4 6 9 11 13 15 16 19 23 26 25 26 29 30 31 31 31 30 29
5 6 7 6 6 6 6 6 8 10 11 14 10 7 6 5 4 5 6 3 2 6 11 14 11 10 12 12 12 14 18 21 21 22 24 26 28 30 32 32 31 29 27 31

GFSNW_700_spd_036.txt.gz
Wind_Speed
27 30 30 31 30 29 26 24 22 23 23 23 25 25 6 6 10 14 14 12 7 11 15 14 15 11 7 9 11 12 11 9 9 7 6 4 4 4 3 3 2 1 2 5
27 29 31 32 31 29 27 24 21 22 24 25 26 24 7 9 9 13 16 13 11 15 16 11 9 9 9 10 10 11 14 10 10 5 5 6 4 5 1 3 7 11 5 4
27 29 31 32 32 30 27 26 19 21 24 24 24 18 11 11 7 14 17 15 14 14 13 13 9 10 9 11 10 11 13 15 8 10 6 7 7 10 10 9 6 9 16 17
28 29 29 31 32 31 29 27 19 22 26 27 22 18 11 13 12 13 13 18 16 15 14 13 13 11 11 12 11 11 10 11 9 9 9 11 13 12 12 16 17 12 12 12
28 28 28 31 33 33 30 22 19 17 11 22 22 21 14 8 16 16 14 11 13 15 16 16 11 9 11 10 12 14 13 9 12 12 13 13 10 13 7 6 7 9 11 12
27 28 27 31 34 36 25 19 18 18 20 24 22 25 15 11 8 13 13 13 14 14 12 11 9 8 5 7 7 9 12 11 9 7 10 9 11 13 11 9 13 17 18 21
26 28 27 30 35 36 17 16 16 22 25 26 22 19 18 13 18 11 11 14 15 15 13 11 8 10 10 10 10 9 9 9 8 5 6 1 6 11 12 15 14 14 14 18
26 27 28 29 34 34 20 19 17 20 18 29 21 19 21 15 19 17 13 15 14 16 14 13 10 12 13 15 17 16 14 13 7 5 8 9 12 14 12 13 15 22 21 17
27 27 28 28 32 27 22 19 15 15 20 20 22 17 19 17 18 16 16 19 19 17 17 16 12 7 9 6 6 14 17 16 15 9 4 6 8 14 15 15 21 6 12 18
24 26 28 27 26 23 22 20 17 17 17 23 22 20 18 16 18 17 17 19 18 17 16 17 16 12 10 7 8 10 15 15 17 18 10 8 15 14 10 10 16 17 17 20
25 23 22 23 22 20 19 17 16 17 17 19 23 22 21 19 19 17 17 18 20 18 17 15 15 12 14 15 15 12 10 9 12 12 10 10 10 13 16 21 23 23 25 26
25 24 23 21 20 18 17 16 15 15 16 17 20 20 19 18 17 16 15 16 13 14 11 15 12 13 12 17 13 18 15 19 15 14 9 19 23 24 24 24 24 27 27 30
25 23 22 20 19 17 16 15 14 14 13 12 18 20 19 16 16 15 15 14 15 14 15 16 14 13 13 15 17 20 19 19 23 23 26 26 24 27 26 26 30 31 30 30
24 22 21 19 18 17 16 16 15 15 13 13 15 18 19 18 19 19 19 17 15 14 15 16 17 18 16 20 21 20 20 21 26 28 29 29 29 28 31 30 27 25 27 34
24 22 20 19 18 16 16 16 15 15 15 9 15 15 16 17 17 17 17 16 17 18 19 20 20 20 23 26 27 29 24 26 28 32 29 31 32 32 29 29 28 32 32 30
24 22 20 18 17 15 14 14 15 15 16 16 12 12 16 19 17 15 17 18 19 21 22 23 25 24 24 21 30 29 25 25 25 27 26 27 27 27 27 29 35 31 32 28
24 22 21 19 18 17 16 14 13 14 15 16 15 16 18 17 16 16 17 18 20 22 24 27 27 27 28 34 37 32 30 29 28 28 27 27 27 27 30 33 30 29 24 20
25 23 22 21 20 19 18 17 17 16 16 17 12 10 14 16 17 18 18 20 22 25 28 29 28 29 30 34 34 30 28 26 25 24 23 24 26 28 28 30 26 20 18 18
27 25 24 23 22 21 20 19 19 20 20 18 21 20 18 18 17 17 18 20 24 27 29 30 28 31 31 32 31 29 28 27 24 24 24 23 25 28 25 20 15 16 17 20
27 27 26 24 23 21 21 20 22 25 26 25 25 23 21 19 19 19 19 21 19 19 20 19 26 35 31 27 28 28 27 26 23 22 25 24 29 22 13 12 14 17 20 25
26 26 24 22 20 20 20 18 13 15 17 23 28 27 27 26 25 22 19 15 11 16 18 18 19 30 29 25 23 22 21 20 21 24 24 27 12 9 13 14 16 20 26 30
26 25 22 21 21 17 13 13 13 13 14 17 16 19 21 27 27 23 18 19 12 10 12 11 13 24 19 14 13 17 19 18 19 16 10 8 11 14 16 18 23 28 30 30
26 25 22 15 15 15 13 17 12 16 18 18 14 12 14 18 19 18 15 11 13 15 9 9 15 16 10 12 14 12 8 5 3 5 10 14 16 18 21 25 30 30 28 30
28 26 20 16 9 12 16 19 22 21 19 18 19 16 10 17 15 14 8 11 10 8 7 7 8 9 9 8 5 5 4 3 9 12 15 17 20 22 26 28 27 29 29 30
10 9 8 12 12 10 9 13 15 17 19 19 17 18 18 16 12 9 9 6 5 6 4 7 12 9 5 6 3 5 6 10 14 16 18 20 24 25 24 26 27 29 31 31
9 6 4 6 9 11 10 9 8 10 13 14 15 16 10 16 9 7 6 4 5 6 10 13 10 9 3 2 4 8 12 14 16 19 23 22 23 24 26 28 30 32 34 35
6 7 9 7 7 8 7 7 6 7 8 11 10 7 8 6 5 7 7 6 7 5 2 4 8 9 7 6 9 13 16 18 21 20 21 23 26 29 31 34 34 35 34 33

GFSNW_700_spd_039.txt.gz
Wind_Speed
36 37 37 35 34 33 32 31 31 30 27 26 28 28 7 8 11 22 17 18 8 12 13 16 14 10 6 9 12 12 12 7 11 7 6 5 4 5 4 1 3 3 2 6
37 38 38 37 36 35 32 31 30 30 28 29 31 28 8 9 12 13 17 13 9 11 18 14 14 13 10 7 10 10 12 8 10 5 5 8 7 8 6 5 4 7 2 5
36 38 39 38 36 34 32 30 28 29 29 29 33 27 12 12 13 15 14 13 13 14 16 12 9 11 8 9 11 11 15 11 11 12 4 9 10 11 10 11 9 13 21 17
36 38 39 39 38 36 33 31 26 30 33 30 31 24 17 13 11 10 13 14 15 17 16 12 11 10 10 10 11 11 13 10 16 11 10 10 11 13 16 19 18 17 21 21
35 37 39 40 38 36 35 32 22 28 13 29 28 26 21 17 14 10 13 13 17 14 15 15 10 12 12 11 12 12 12 8 14 13 13 15 17 18 19 21 18 17 17 19
35 35 38 39 39 38 35 30 23 24 18 29 28 29 22 14 13 17 15 10 11 15 13 11 9 8 7 8 9 11 13 13 10 9 16 16 16 22 24 18 16 15 20 21
33 34 35 36 38 37 33 28 23 24 25 29 27 27 23 16 12 8 14 12 14 13 11 8 8 8 7 6 6 7 9 11 10 6 7 1 14 14 15 19 18 17 16 18
33 32 32 35 37 38 29 25 20 24 22 27 24 21 25 19 16 14 10 11 12 12 13 10 8 9 9 12 13 14 14 14 9 6 11 13 10 15 17 19 17 14 18 20
32 31 31 35 39 40 31 23 20 21 27 29 25 21 19 19 18 19 16 13 15 14 17 14 10 7 8 6 6 12 18 18 16 10 5 6 7 11 14 15 20 13 11 15
31 30 29 35 38 37 25 21 20 20 21 28 26 21 20 18 18 18 16 15 17 17 19 17 15 14 12 8 10 12 15 16 20 21 13 10 15 18 16 14 10 13 18 16
32 31 30 33 38 37 22 18 16 16 19 22 24 23 20 20 19 18 17 17 19 19 18 16 15 12 15 16 18 16 12 8 12 14 11 13 15 17 18 14 21 24 23 22
29 31 31 30 30 28 21 19 18 19 20 20 24 21 20 18 17 17 16 17 14 14 13 17 13 12 13 16 16 19 16 20 15 14 9 15 13 16 22 23 26 26 24 25
25 25 28 29 26 24 21 20 19 18 18 15 21 22 20 18 18 18 17 17 17 16 13 15 15 14 14 15 16 19 18 20 25 26 26 25 26 28 29 29 28 26 28 27
27 26 26 26 25 23 21 19 18 17 17 14 19 20 20 19 18 17 16 16 16 16 17 17 18 18 16 20 20 20 19 23 25 28 28 29 29 28 27 28 28 33 28 29
26 25 24 24 23 21 20 19 17 16 16 12 16 18 20 20 19 19 19 19 18 17 18 19 18 20 22 25 26 29 24 26 28 31 27 29 29 29 29 30 29 27 29 29
25 24 23 22 21 20 19 18 17 17 16 11 12 17 18 17 17 17 18 18 19 19 19 20 22 22 23 20 27 29 26 24 25 28 27 29 28 28 27 27 27 28 28 35
23 21 21 20 19 18 17 16 15 16 15 15 14 12 13 13 16 17 18 18 19 21 22 24 25 26 27 32 34 29 30 30 29 30 29 28 26 26 26 26 27 32 31 27
22 20 19 18 17 16 15 14 12 12 14 15 10 8 11 13 15 17 18 19 21 24 26 27 27 29 30 35 32 33 29 26 25 23 22 24 26 26 25 28 28 28 23 15
22 22 21 19 17 16 15 15 15 16 16 14 16 17 15 14 14 15 17 19 24 25 27 27 27 31 30 31 31 31 30 29 28 28 27 26 26 25 28 29 24 13 13 16
24 22 21 20 19 17 16 17 18 20 21 21 20 18 18 17 17 17 19 20 18 16 19 20 27 34 31 30 30 29 29 27 27 27 23 23 22 28 21 12 10 12 14 19
26 26 25 22 19 20 19 17 13 14 15 21 24 24 24 23 23 20 17 12 10 13 16 18 19 29 26 26 24 24 24 23 23 19 20 22 18 9 6 8 12 15 18 23
25 24 23 22 19 15 12 11 11 11 13 13 12 15 20 25 24 21 17 17 11 9 13 11 12 22 20 19 18 18 17 16 15 14 15 11 6 9 12 13 15 20 25 29
21 21 18 12 14 15 11 13 11 13 17 18 14 13 16 18 19 16 13 10 12 14 9 9 15 19 18 17 13 9 9 13 13 10 4 10 13 12 15 20 24 28 28 29
21 20 15 12 9 11 17 20 20 24 20 14 12 13 10 15 12 13 7 10 9 7 7 7 12 10 12 14 12 12 11 6 4 9 11 13 16 19 22 26 27 27 28 30
23 14 10 17 15 12 11 15 18 18 16 14 14 14 12 10 9 7 9 6 6 7 6 9 6 12 12 7 4 1 4 7 9 12 16 19 21 24 24 25 26 29 32 35
9 8 6 7 11 11 10 10 13 13 13 13 14 15 9 13 8 8 8 5 6 7 9 12 12 12 8 3 1 2 5 9 14 18 20 24 24 24 24 26 30 34 37 39
7 8 9 5 4 5 6 7 8 9 12 15 12 8 9 6 6 6 7 7 8 8 11 13 10 9 5 3 5 10 13 16 20 22 22 23 24 26 30 34 36 38 39 38

GFSNW_700_spd_042.txt.gz
Wind_Speed
43 42 40 39 37 36 37 37 36 34 32 29 28 28 24 8 8 22 23 16 12 11 18 15 17 13 12 10 11 12 13 9 9 12 9 9 8 8 7 4 4 5 2 7
44 44 43 41 40 37 39 38 36 35 33 32 29 31 23 9 9 18 24 19 12 11 14 16 17 15 12 7 10 11 14 7 8 5 8 11 11 10 10 7 5 8 4 5
45 45 44 43 41 38 38 36 32 35 34 33 31 31 23 9 9 13 18 17 14 9 14 16 11 14 11 10 11 12 14 11 12 15 5 9 13 15 14 12 7 8 17 21
45 46 45 44 42 40 39 36 29 39 37 36 31 29 23 13 11 11 14 13 12 13 14 14 10 10 10 11 11 12 13 12 15 14 11 10 11 13 15 18 18 18 23 23
45 44 45 45 44 42 39 36 30 33 18 34 30 31 30 17 14 13 12 12 13 14 13 12 11 10 11 10 12 13 14 9 12 15 15 14 16 18 20 23 25 26 25 24
42 44 46 45 44 42 39 33 27 29 36 32 31 31 29 23 17 14 9 8 11 16 13 12 11 9 9 8 10 11 12 11 9 8 15 17 19 25 26 28 28 25 23 18
41 42 45 45 43 40 37 32 27 25 30 25 32 27 27 22 18 14 13 12 10 10 10 8 6 6 6 7 7 8 9 10 11 6 6 2 16 18 17 19 24 24 22 20
38 40 43 44 41 39 37 33 27 23 24 20 30 27 29 22 16 13 8 11 11 9 9 9 7 9 9 11 11 11 11 11 8 5 9 17 18 19 17 18 18 20 23 18
35 38 41 41 41 39 36 30 26 23 20 25 28 28 30 26 21 17 13 11 12 11 11 12 9 6 5 5 5 12 15 16 15 11 5 6 9 9 12 17 25 20 17 13
35 36 35 37 38 37 33 28 24 20 19 26 27 23 25 26 21 20 17 16 14 12 13 15 13 11 9 7 7 10 12 13 17 19 12 10 15 17 16 12 13 9 11 19
34 33 33 34 37 40 35 29 21 18 18 28 27 23 21 22 20 19 18 18 18 15 18 17 16 11 13 14 18 16 15 9 11 10 9 11 14 15 15 13 14 19 24 26
33 31 31 36 40 41 38 28 19 17 19 25 26 21 21 18 19 19 17 16 11 12 12 17 15 14 15 17 17 18 15 19 15 13 8 14 20 20 19 22 23 25 27 27
32 31 31 35 36 32 26 11 17 16 17 19 23 23 21 20 18 17 16 16 15 16 16 16 14 15 15 16 16 19 18 18 23 22 23 24 24 24 27 28 28 28 27 29
31 31 31 30 30 28 23 19 17 17 18 17 23 22 22 20 18 18 17 16 15 16 16 17 19 20 18 19 19 17 17 22 25 27 25 26 24 25 26 27 28 29 28 28
30 31 32 30 29 27 24 19 18 18 18 18 19 21 21 20 19 18 18 17 16 18 19 20 19 20 20 23 23 25 22 23 24 27 22 24 25 26 26 28 28 27 26 27
27 28 25 25 24 24 23 21 20 19 20 9 16 18 20 20 19 19 18 18 19 19 18 19 21 22 22 15 21 25 23 22 26 28 27 27 28 28 27 25 23 23 24 26
27 26 25 24 24 23 22 22 20 18 17 15 11 11 17 17 16 17 17 17 18 19 20 22 24 24 25 27 28 26 26 26 27 28 27 27 26 26 25 25 24 23 24 26
24 24 23 22 21 20 19 17 15 17 16 15 10 8 11 14 15 16 16 17 18 21 23 25 26 27 27 30 29 28 27 27 26 26 27 27 27 27 26 26 26 25 30 25
22 21 20 18 18 17 16 15 14 14 15 11 11 12 10 10 11 13 16 19 23 24 26 26 26 29 24 26 29 30 30 30 30 28 27 26 25 24 24 26 27 26 16 11
22 21 19 15 14 13 13 14 14 15 16 16 14 12 13 12 13 15 18 19 17 15 19 19 24 30 27 28 29 29 30 29 28 25 25 24 19 22 24 18 14 12 9 14
25 22 19 17 14 15 13 12 10 11 10 13 17 17 18 19 20 19 14 12 9 10 14 18 17 22 23 24 24 24 23 23 22 20 17 15 18 17 14 11 9 13 17 20
29 26 22 21 16 11 9 8 9 7 9 11 13 16 20 24 22 17 13 15 10 8 13 10 11 20 20 19 17 18 20 20 18 15 14 15 12 8 8 13 17 19 21 24
17 17 15 9 10 13 9 12 9 12 16 14 13 15 17 18 18 13 10 8 10 13 8 9 14 19 17 16 16 12 13 13 14 13 9 5 9 15 18 18 19 22 23 24
22 19 14 12 9 9 16 18 17 17 14 12 11 12 10 13 11 11 6 10 8 6 7 8 13 14 11 11 12 13 12 11 8 6 10 13 15 17 19 23 24 24 25 27
18 14 9 13 14 12 9 11 16 16 17 16 14 13 14 11 8 6 8 6 6 7 8 10 8 13 13 13 13 10 7 7 9 11 11 13 17 21 23 23 24 26 29 32
17 12 10 9 13 14 13 13 14 14 13 10 12 12 6 10 7 8 8 5 6 7 9 8 12 13 11 8 5 4 5 6 10 11 15 19 22 23 23 24 27 31 35 38
7 9 12 9 9 9 10 8 9 9 10 15 11 7 9 5 7 8 9 11 11 10 8 9 14 17 11 4 1 3 7 11 14 18 20 22 23 24 27 30 34 38 40 43

GFSNW_700_spd_045.txt.gz
Wind_Speed
53 47 45 43 41 40 40 41 41 39 35 33 30 28 24 21 10 16 20 19 14 17 18 12 15 13 12 11 14 15 14 10 9 13 9 9 10 10 10 5 5 5 3 6
53 51 48 46 44 44 43 44 39 38 36 36 31 29 25 20 11 18 22 20 13 12 16 13 13 14 12 9 11 12 15 10 7 4 9 13 15 15 14 13 8 8 4 5
55 51 50 49 46 44 41 43 32 39 37 33 34 31 27 20 12 18 23 20 16 11 12 16 9 14 13 13 11 14 14 15 13 15 6 8 17 19 17 16 10 12 19 19
53 54 52 50 48 45 45 45 33 44 42 37 35 28 25 19 14 15 22 22 19 15 10 17 13 14 14 14 14 15 15 15 17 16 13 11 12 14 17 20 20 18 22 22
59 54 54 52 49 47 48 42 36 38 17 36 34 31 25 23 15 16 16 14 15 13 13 13 15 10 10 12 13 16 17 11 13 16 17 17 19 18 18 21 23 26 28 29
56 56 55 52 51 48 48 40 32 32 40 33 34 32 28 26 18 12 12 11 13 15 13 11 9 9 10 11 13 14 15 14 10 8 14 15 17 24 25 27 28 29 31 25
56 55 54 53 51 46 44 37 36 27 31 25 36 31 28 27 21 17 11 9 10 14 15 13 10 8 8 10 9 11 10 12 10 6 6 2 16 19 18 19 20 22 23 22
52 54 52 51 48 45 42 38 32 27 26 32 25 33 28 25 25 21 14 11 10 11 12 11 9 9 8 10 10 10 10 10 6 5 8 15 16 18 21 22 22 20 17 17
50 50 50 48 46 44 41 37 29 25 23 27 26 33 29 28 26 21 14 13 14 13 14 12 9 6 6 5 5 15 16 14 13 10 5 5 5 9 13 15 19 16 13 13
44 45 47 46 44 43 39 35 30 25 23 18 25 33 31 31 26 23 20 17 15 13 14 14 11 10 8 5 5 5 7 10 14 16 11 8 13 15 14 7 9 5 8 11
39 42 44 44 43 41 37 35 29 27 23 19 26 28 29 32 28 23 21 21 20 18 16 13 12 9 11 11 13 12 12 7 8 9 7 8 5 7 8 11 13 16 17 20
37 38 39 40 40 39 36 33 28 26 23 22 26 27 21 25 27 23 21 19 15 17 14 13 9 11 11 12 13 14 13 16 13 11 8 13 18 21 19 17 17 21 22 23
34 34 35 37 39 39 37 33 32 21 20 24 27 27 23 22 21 21 21 19 18 15 15 13 12 14 13 14 13 15 16 17 20 19 20 18 20 22 21 20 22 22 23 25
33 32 34 36 38 39 39 27 20 18 20 24 30 26 24 21 19 20 18 16 16 15 15 16 18 18 16 16 16 14 17 20 22 23 21 20 20 21 21 22 25 25 25 26
30 30 32 33 35 33 31 31 18 15 18 17 27 25 23 22 20 17 17 17 17 16 17 17 16 18 19 20 18 19 18 19 20 21 18 21 22 24 25 26 26 27 26 24
29 30 32 32 31 28 27 19 14 17 20 13 24 23 23 21 20 19 18 17 16 17 17 19 19 20 18 12 14 18 20 18 22 23 23 24 25 25 25 25 25 24 24 23
31 27 30 32 31 29 28 24 21 19 20 12 18 18 21 20 19 18 18 18 18 17 18 19 20 19 19 21 21 21 22 23 23 24 23 23 22 23 23 21 21 21 23 24
34 27 28 27 26 25 24 23 22 20 18 16 10 9 16 19 18 18 17 17 18 19 20 21 22 21 21 19 23 23 22 23 23 23 24 25 25 23 22 22 20 19 23 21
21 33 25 23 23 22 19 18 16 18 16 12 13 14 10 13 14 15 16 19 20 20 22 23 22 22 17 21 22 25 26 26 26 26 26 24 21 21 19 17 20 21 18 14
25 25 23 22 21 19 18 16 15 15 16 15 11 12 13 12 13 15 17 16 13 12 16 16 21 24 21 22 24 26 26 26 23 20 19 19 19 17 15 15 15 15 12 11
24 24 24 21 19 16 15 11 12 10 10 13 16 15 15 15 16 16 11 10 8 7 13 15 12 17 19 20 21 21 21 20 19 18 16 16 15 14 13 12 9 10 15 17
24 21 20 18 16 9 8 8 9 7 11 13 15 16 18 20 19 15 11 12 8 8 11 9 8 16 17 17 16 17 17 18 17 14 12 10 10 9 6 9 14 16 16 16
25 24 22 14 15 10 9 12 13 13 13 12 12 15 18 18 17 12 8 7 9 9 6 8 15 16 16 16 16 15 13 13 12 9 8 4 6 11 12 12 14 15 16 18
20 16 12 8 6 9 13 14 15 13 12 13 13 15 11 14 13 10 6 8 6 6 8 11 15 11 12 13 12 10 10 9 8 7 6 7 7 9 12 16 18 18 20 22
13 9 8 13 12 10 11 14 16 16 14 14 14 13 14 10 8 6 8 5 6 7 7 8 8 8 9 11 12 11 7 3 2 2 4 7 11 14 18 19 21 22 25 28
15 13 8 10 12 14 14 13 13 14 16 14 13 11 6 10 7 8 9 5 5 3 4 6 7 9 12 12 9 6 3 3 5 9 11 14 17 19 20 22 24 27 31 35
12 11 14 10 11 11 12 12 13 12 13 13 9 8 8 5 5 8 7 6 8 8 7 4 8 11 12 10 6 5 5 7 11 15 17 19 20 22 24 26 29 33 36 40

GFSNW_700_spd_048.txt.gz
Wind_Speed
65 54 58 51 46 45 44 40 39 46 47 40 35 27 23 19 16 11 17 18 14 17 17 15 14 17 16 16 17 13 14 11 7 11 13 13 14 11 13 8 6 4 1 5
63 61 58 52 50 49 45 43 30 44 46 39 37 26 26 23 15 14 20 21 17 19 20 12 14 15 17 11 14 14 15 10 7 4 8 13 14 16 16 16 10 8 4 4
59 59 51 53 52 48 45 41 37 44 47 35 30 31 27 21 18 16 23 21 17 15 18 19 9 15 15 14 12 14 14 17 14 16 8 7 10 20 20 15 9 10 16 14
65 67 62 59 54 51 49 42 32 48 51 45 33 30 22 23 18 18 24 23 19 17 16 17 19 14 15 16 15 15 15 13 20 19 16 14 14 12 17 21 19 13 16 15
63 56 63 58 56 55 53 45 35 38 28 45 32 35 26 24 20 19 25 20 21 18 16 12 13 16 16 16 15 17 17 12 16 18 19 19 18 18 19 20 21 24 23 28
49 60 65 60 61 59 56 44 32 41 30 45 37 38 27 26 21 18 20 20 22 20 17 15 14 14 12 13 14 15 18 17 12 7 14 15 15 24 26 26 26 27 23 21
58 70 65 62 60 57 56 40 34 35 41 39 41 32 32 25 23 18 19 19 18 16 16 14 12 11 12 14 15 13 14 16 11 6 4 3 13 16 16 20 21 23 22 24
72 68 64 62 60 56 55 37 31 31 37 24 40 34 28 28 26 22 18 15 12 12 15 14 11 11 11 12 12 13 14 13 8 5 7 12 16 18 17 18 17 18 18 17
70 63 61 61 55 53 53 38 33 26 30 41 25 40 32 33 29 24 21 15 12 13 16 15 10 7 7 7 7 16 15 15 13 8 4 4 4 10 12 13 12 9 6 8
60 60 59 56 55 52 51 35 32 25 29 25 31 29 37 35 31 29 25 20 15 16 17 19 12 10 11 6 7 7 12 15 17 16 10 7 12 14 12 3 4 8 14 15
52 53 54 55 53 49 48 42 32 28 24 22 26 34 32 36 33 30 27 22 22 21 19 19 12 10 13 12 11 7 7 6 7 8 6 6 2 3 4 9 17 15 16 16
50 52 52 52 51 48 44 36 32 29 25 22 21 30 28 35 31 30 25 25 18 21 20 17 12 11 10 14 8 11 11 14 10 8 5 10 15 16 14 16 17 17 18 20
49 51 50 50 48 46 40 32 29 28 26 22 22 29 30 30 33 29 27 23 22 19 20 16 13 11 11 12 13 13 13 14 16 14 13 12 17 19 20 20 21 22 23 25
45 47 48 46 44 41 36 30 26 24 25 26 27 28 29 24 28 31 28 23 21 18 17 18 17 16 14 15 14 13 14 16 16 17 17 17 19 19 20 22 23 25 26 26
42 45 45 44 41 39 34 29 28 24 23 19 30 30 28 25 24 23 22 21 19 19 18 18 18 19 17 16 16 17 16 18 17 17 17 17 21 22 24 25 26 24 25 24
39 39 39 40 39 37 31 26 28 29 8 14 30 31 29 25 21 20 22 21 19 20 20 19 19 17 16 11 13 16 17 17 17 19 20 22 23 23 23 23 24 25 24 22
35 35 36 36 35 36 33 23 22 30 11 9 22 27 26 27 27 26 22 20 19 19 18 19 19 18 16 17 17 19 20 20 21 21 22 22 21 22 24 24 23 22 22 20
34 35 35 34 33 33 27 25 19 16 15 15 12 14 24 24 23 21 20 20 18 19 19 19 18 17 18 15 20 21 21 20 21 21 20 21 24 24 23 22 19 17 17 19
34 34 34 32 33 35 31 22 20 20 17 13 10 13 15 23 22 21 20 20 19 19 19 20 18 18 14 21 20 21 22 22 22 23 24 24 21 19 18 17 16 17 18 17
38 36 34 31 29 28 21 22 28 23 19 16 14 17 14 15 20 20 18 16 14 12 16 18 20 21 23 24 24 24 23 23 22 19 17 17 16 16 14 12 13 12 10 7
37 34 30 28 24 24 23 16 19 13 14 19 17 16 18 17 16 17 13 9 7 6 12 14 11 16 19 20 21 20 18 16 14 14 13 13 12 11 11 9 8 7 8 9
28 23 25 30 26 14 8 15 14 11 12 16 21 19 17 17 15 14 11 12 7 7 11 9 8 17 20 18 15 14 14 13 12 9 8 8 9 9 7 5 6 7 8 10
25 31 29 21 12 9 10 13 13 12 12 18 17 18 17 16 16 11 8 8 9 9 7 8 15 16 14 13 13 11 9 7 6 6 6 6 4 4 5 6 8 10 11 13
27 22 18 10 8 9 9 17 17 17 14 15 16 19 15 16 12 9 6 9 7 6 8 12 15 12 11 8 7 6 6 6 6 6 5 5 5 6 8 10 12 13 15 19
18 11 7 11 11 16 13 15 15 16 17 17 17 17 15 12 8 7 8 6 6 8 9 7 5 6 7 8 9 10 10 9 7 5 5 7 9 12 14 16 17 19 22 26
10 7 9 13 13 13 16 18 17 16 15 14 14 13 7 10 7 8 9 6 6 6 5 4 5 6 9 10 12 12 10 8 8 9 9 11 14 17 18 19 21 24 27 31
8 13 15 10 11 16 17 15 15 14 16 17 10 7 9 6 6 7 7 7 7 6 5 5 5 6 10 12 11 9 9 9 10 12 15 18 20 21 22 24 25 28 32 37

GFSNW_700_spd_051.txt.gz
Wind_Speed
64 62 65 62 52 51 50 45 32 38 43 48 40 35 29 24 21 12 13 17 18 19 18 18 16 19 15 16 14 15 15 10 15 13 10 13 10 11 12 11 9 10 7 8
61 58 68 62 54 58 53 47 32 32 46 47 39 30 29 28 19 17 12 17 18 18 18 15 16 15 19 14 19 16 14 12 15 11 12 14 13 14 13 14 8 12 6 6
49 58 75 60 59 59 53 41 34 36 50 44 35 35 31 28 23 16 15 18 18 15 16 18 13 13 16 19 18 17 14 16 16 16 12 6 12 14 15 17 14 16 19 15
49 61 78 62 60 58 54 44 42 46 51 54 40 35 28 30 26 20 15 19 20 17 17 18 13 13 14 16 16 15 15 14 16 19 13 10 11 11 13 19 23 22 20 18
51 68 76 67 59 60 61 48 40 29 22 47 36 35 35 32 26 20 19 20 22 19 14 17 13 14 11 12 17 17 17 12 13 14 14 16 17 18 18 20 21 23 24 25
53 70 85 61 55 67 65 48 34 35 36 49 41 39 36 29 27 20 18 23 23 20 17 15 11 12 12 10 12 14 11 12 10 10 9 8 14 22 22 22 22 22 23 22
53 51 63 61 72 72 65 46 27 34 41 49 48 36 32 26 27 15 21 21 21 23 20 16 15 15 14 13 13 13 14 12 12 7 4 2 11 13 14 13 16 19 21 20
49 59 57 48 69 69 65 42 29 31 37 40 36 35 35 27 25 16 23 26 24 19 18 14 12 11 13 13 16 17 15 13 9 6 9 12 15 13 14 9 10 9 10 12
50 68 57 62 72 67 63 40 37 29 38 36 39 34 34 30 26 27 20 23 22 19 17 15 10 8 11 6 5 16 16 17 12 9 4 4 4 10 10 10 10 8 4 3
48 60 75 76 72 66 54 43 34 22 25 24 36 37 34 27 26 26 26 22 18 15 16 17 13 10 9 7 8 8 17 17 17 12 8 8 10 14 13 6 3 7 10 11
71 53 69 72 68 66 51 43 34 28 24 33 32 29 31 27 29 30 30 26 23 20 16 15 12 11 11 10 8 9 8 9 9 12 8 8 11 7 4 6 14 20 17 14
45 67 70 68 66 62 47 40 34 25 25 25 34 38 30 35 28 26 27 24 23 21 14 17 15 13 11 15 8 13 9 11 6 9 4 10 9 11 18 18 18 22 22 24
70 73 70 64 63 58 43 39 37 28 22 21 25 34 33 29 36 37 30 30 26 22 21 17 16 12 14 14 15 11 13 16 14 15 8 11 13 18 22 22 21 22 22 22
60 60 61 59 58 54 44 37 33 28 24 22 23 27 33 31 32 35 32 31 24 20 18 19 20 15 12 14 12 10 11 13 12 14 15 13 17 21 19 20 23 24 25 26
54 54 55 54 52 48 43 37 33 29 24 22 22 24 29 31 30 34 31 28 26 20 22 23 22 19 16 16 16 14 16 13 14 11 16 17 21 21 23 24 25 26 25 24
50 50 50 50 50 43 36 31 33 24 23 23 26 27 29 30 29 30 34 32 28 26 23 23 21 18 17 11 15 17 19 18 19 21 20 21 24 25 25 25 23 24 26 24
47 47 46 43 45 36 32 17 21 22 18 24 21 26 29 30 28 28 28 27 26 25 23 23 20 18 18 20 17 20 20 20 21 21 22 25 25 24 23 24 26 25 24 24
41 41 41 41 42 33 26 14 13 19 15 16 10 15 31 32 31 29 28 27 25 24 23 21 20 19 20 17 21 23 23 23 24 24 23 23 22 24 26 25 23 20 18 18
40 40 39 37 38 33 26 16 18 16 18 4 7 16 23 31 31 29 28 28 25 20 22 23 21 20 15 21 23 23 24 24 23 23 22 23 25 24 20 18 18 15 16 16
39 38 38 37 37 33 23 21 17 14 10 10 10 16 17 25 27 27 24 21 17 12 20 20 23 23 22 24 25 25 25 23 24 23 23 21 18 17 16 13 13 14 13 12
40 40 38 40 30 28 28 13 13 11 12 15 16 16 14 17 26 25 19 14 10 8 13 14 10 17 21 23 26 25 23 21 19 18 18 16 15 13 13 12 11 10 11 11
32 31 33 32 24 13 8 12 11 9 14 14 21 18 18 19 20 15 20 10 9 7 9 9 7 19 21 23 21 19 16 15 15 14 13 13 11 11 10 10 10 10 11 11
34 37 26 13 8 6 6 14 13 11 16 16 20 21 19 17 16 12 9 8 9 8 8 8 16 17 18 17 15 13 13 12 10 8 8 8 8 9 10 11 11 12 13 14
34 21 17 9 8 12 12 20 20 17 13 19 18 21 19 18 15 9 6 9 7 8 7 10 13 13 13 12 11 9 7 7 8 8 8 9 10 10 10 11 13 15 17 18
20 10 10 11 12 11 11 18 19 20 19 15 15 17 15 12 8 8 8 7 6 7 10 11 8 10 9 8 7 7 8 8 9 10 11 10 10 11 13 15 18 19 20 23
13 7 10 17 12 14 17 18 16 15 14 16 16 13 8 9 6 8 8 6 6 10 8 8 6 6 7 10 10 10 11 11 11 11 11 12 13 15 18 20 21 23 25 28
10 12 12 13 15 15 14 15 15 15 15 15 10 8 9 6 7 8 9 12 10 9 8 6 6 8 10 11 11 13 13 12 13 13 13 15 18 20 22 24 25 27 30 33

GFSNW_700_spd_054.txt.gz
Wind_Speed
63 67 65 62 56 51 46 50 46 41 43 44 49 48 31 28 21 19 16 16 20 17 20 18 21 17 18 17 15 10 13 10 11 13 10 8 9 9 11 12 10 7 11 14
53 59 66 63 59 59 50 54 42 28 41 50 47 38 33 28 26 22 16 17 18 16 18 19 19 14 14 14 11 12 12 11 14 16 11 10 16 15 16 14 11 11 5 5
57 50 60 63 65 63 54 52 41 35 43 49 44 38 33 32 30 24 20 16 18 15 18 15 15 16 17 14 13 19 18 12 15 14 16 7 10 12 15 15 13 15 21 20
56 54 51 61 71 64 55 50 48 52 46 53 38 35 32 32 31 28 19 22 21 19 17 17 17 17 14 16 19 20 17 16 16 19 19 13 12 12 10 14 17 20 21 18
53 54 50 62 76 60 60 57 43 42 30 44 42 43 42 34 33 26 23 20 21 21 18 18 18 13 15 12 15 17 18 13 14 14 13 13 16 18 18 20 20 20 21 23
48 52 47 68 79 57 67 58 45 33 41 24 53 52 40 34 31 28 27 20 20 21 19 16 17 15 15 7 12 18 12 13 9 9 10 11 13 22 20 22 20 20 22 20
45 47 44 67 88 64 70 57 47 34 34 39 51 42 35 36 30 30 22 21 24 23 22 18 15 10 11 12 9 9 12 12 11 7 6 1 18 10 12 13 14 13 14 15
38 44 43 71 87 60 65 50 42 34 37 39 40 45 42 32 26 32 26 27 21 23 23 18 11 13 13 12 11 15 12 12 12 7 10 13 17 10 9 6 7 6 10 9
38 42 54 73 84 58 67 54 43 31 35 41 39 44 36 35 29 30 22 27 23 23 21 17 11 8 10 9 6 16 13 13 15 10 5 5 2 10 9 8 7 7 4 5
39 49 55 58 83 57 72 57 37 36 33 35 39 48 46 35 29 27 27 28 30 26 25 21 12 12 9 10 10 8 13 17 18 14 8 7 9 14 15 6 6 12 9 8
42 46 55 53 75 69 71 51 26 29 24 29 44 39 36 37 34 33 31 28 27 27 22 18 11 11 14 11 10 12 9 9 11 13 7 8 13 15 7 10 8 12 19 18
42 41 36 57 55 77 62 51 31 29 32 30 41 43 39 39 38 34 34 28 27 20 19 15 13 11 15 17 11 12 9 10 6 9 3 10 6 10 10 12 21 19 20 21
38 41 51 53 68 73 55 41 29 12 26 25 33 39 41 36 29 30 33 28 22 24 20 16 14 10 14 13 17 10 10 14 14 12 10 10 9 14 20 20 20 21 21 20
34 44 63 56 80 64 50 40 34 22 18 18 33 35 39 36 35 24 26 31 26 24 18 16 16 15 13 14 10 10 13 14 10 10 11 9 17 19 20 20 18 21 23 23
42 50 59 71 73 62 39 38 41 26 22 21 28 30 36 34 32 31 33 30 25 22 21 18 19 18 16 14 14 13 14 13 14 13 17 20 23 21 21 23 25 25 25 23
55 62 72 71 63 55 31 29 18 13 16 12 22 26 30 35 34 31 30 30 26 30 25 23 23 19 18 14 16 15 19 20 18 23 22 22 23 24 26 26 26 24 24 25
61 66 61 66 61 45 27 22 29 25 18 16 11 17 22 29 33 32 30 34 32 29 27 25 23 22 20 19 16 18 19 22 20 21 22 23 25 27 24 22 24 25 25 25
63 59 55 52 52 33 31 26 32 26 21 16 9 9 24 27 32 33 33 32 32 30 27 26 25 23 20 18 20 22 24 23 23 23 24 26 24 24 23 24 26 26 23 21
49 46 49 47 34 31 26 33 29 32 20 11 13 20 18 30 31 32 29 30 30 27 28 26 24 23 16 20 24 25 25 25 24 22 21 21 22 22 25 25 20 20 20 17
46 46 49 44 36 35 25 25 21 19 16 17 13 28 19 32 33 32 30 26 21 19 24 24 24 23 24 23 24 26 25 24 25 23 22 22 23 21 18 19 19 15 13 12
43 45 37 30 36 29 22 11 14 10 10 12 10 16 10 29 32 32 24 16 16 9 15 17 16 24 25 26 28 28 28 25 23 22 21 19 17 17 16 13 12 11 12 13
43 40 37 26 18 7 6 10 11 8 9 12 18 17 14 16 21 19 13 8 8 7 12 14 10 20 20 22 24 23 20 18 16 15 15 15 14 11 10 11 11 12 13 14
33 31 26 17 14 9 8 11 10 10 14 15 21 21 22 21 20 11 11 10 10 7 9 8 13 15 19 20 20 18 14 14 14 13 10 9 9 10 10 11 12 13 13 15
28 21 21 10 11 8 9 18 13 11 12 15 19 23 18 17 18 8 7 8 8 9 8 11 15 17 17 17 16 13 12 11 9 9 9 9 10 10 11 12 12 14 16 18
19 11 9 12 10 14 12 16 16 15 11 18 22 24 15 18 9 9 7 9 7 9 11 12 9 12 14 14 13 10 9 9 9 9 9 9 10 10 11 13 15 18 20 23
15 6 8 10 11 9 10 12 16 19 20 21 20 15 9 9 7 9 8 7 6 9 8 9 10 11 12 10 8 11 11 10 10 10 10 11 11 13 14 17 20 23 24 25
8 10 10 14 12 16 17 16 17 19 19 19 12 9 9 6 7 8 8 10 11 9 8 9 9 8 8 9 12 11 12 12 11 12 13 13 14 16 18 22 24 26 27 28

GFSNW_700_spd_057.txt.gz
Wind_Speed
58 70 68 66 63 56 50 48 46 41 43 45 50 53 49 31 34 24 18 17 15 19 18 24 25 21 19 13 15 15 9 8 9 26 10 15 11 8 8 12 9 5 2 10
43 52 65 67 65 60 56 52 47 32 45 51 56 53 50 42 34 30 17 21 21 19 15 14 19 22 21 21 21 14 14 8 10 12 11 10 14 14 21 17 13 15 6 4
51 53 49 59 64 60 61 53 42 41 41 54 53 54 50 49 39 31 21 19 24 19 16 14 11 26 21 18 20 18 17 11 9 13 11 11 12 11 9 15 19 14 16 18
53 57 55 55 54 64 65 58 47 52 52 58 48 40 47 46 47 36 26 19 20 21 18 15 13 21 16 15 13 15 14 20 16 14 13 18 13 13 11 11 16 18 16 17
52 57 56 57 51 72 69 57 49 54 37 49 52 44 44 49 44 37 31 25 25 20 22 19 22 18 15 19 16 17 17 18 17 15 18 18 15 13 19 21 17 16 15 17
62 59 58 59 54 78 77 63 51 45 54 26 49 57 44 46 40 35 26 26 21 23 23 19 20 18 21 19 16 16 16 16 16 13 15 19 20 24 23 20 20 20 18 16
71 59 58 60 57 85 80 71 52 35 44 43 36 53 46 40 41 33 30 32 27 18 22 22 21 18 18 14 12 11 18 14 12 9 10 1 16 7 10 8 5 10 10 13
73 54 54 61 63 87 77 60 55 35 39 47 46 29 47 39 42 34 30 29 27 27 22 25 22 18 17 15 14 12 17 19 12 7 12 12 13 11 12 11 6 8 10 13
58 53 52 60 67 87 52 63 69 34 34 38 38 47 42 48 45 35 36 33 37 26 31 24 17 13 11 10 12 17 21 19 18 11 5 6 4 7 9 8 6 10 14 16
48 47 48 50 68 69 56 65 51 36 32 34 31 40 45 47 46 39 34 30 30 31 31 26 18 15 16 10 17 14 16 19 19 19 11 8 14 11 11 10 10 14 12 12
46 45 46 41 54 62 66 57 52 33 25 24 30 28 42 48 48 39 35 33 40 36 31 30 18 12 18 12 17 16 12 10 15 15 9 10 14 14 13 13 13 13 13 15
40 41 42 41 55 75 74 57 39 42 22 34 36 30 44 43 43 38 33 34 33 26 28 18 21 17 20 21 13 14 15 14 9 9 4 6 9 11 11 12 13 14 18 19
40 45 39 45 55 88 63 48 42 39 21 25 37 38 48 40 44 37 37 30 27 36 36 26 21 21 18 17 19 15 19 12 13 11 8 10 16 16 16 16 18 19 19 18
42 44 42 40 61 68 62 47 38 33 28 30 40 48 45 41 38 38 40 44 24 32 26 27 21 16 15 14 9 15 17 16 16 14 17 13 16 19 19 20 21 19 19 19
37 38 36 37 66 67 63 45 36 23 8 24 28 42 41 40 31 25 15 43 29 28 26 23 20 17 14 15 16 19 19 20 19 20 21 22 22 23 24 22 22 22 21 22
34 32 32 47 57 76 71 49 18 25 20 8 23 32 32 36 31 22 17 31 15 18 20 20 19 18 17 13 20 21 21 18 19 19 18 20 22 23 23 23 24 23 22 19
34 39 52 69 55 63 45 30 11 25 28 15 21 28 32 36 36 31 24 22 27 29 24 23 23 21 20 21 21 23 19 17 20 21 21 24 24 24 23 22 22 22 21 22
41 55 61 61 58 64 33 18 18 18 18 11 16 23 34 38 38 35 33 31 30 31 30 29 27 23 23 22 25 22 19 18 21 23 24 23 21 21 22 22 22 22 23 21
47 41 46 53 58 54 26 18 27 26 16 12 12 19 22 28 31 35 33 30 28 25 29 28 24 26 23 22 21 21 21 22 22 23 23 21 20 19 20 22 23 21 17 14
49 55 57 55 23 23 21 19 22 21 21 17 16 11 13 19 28 27 30 27 20 21 27 28 30 30 28 25 22 19 21 24 23 21 20 20 20 21 22 20 14 13 12 10
51 48 37 27 28 30 14 11 12 10 12 16 18 16 15 19 24 24 23 19 20 16 19 24 24 28 27 24 24 24 26 27 25 21 20 21 23 20 13 12 11 10 10 10
24 37 26 30 21 8 8 9 8 5 7 9 16 14 17 19 30 21 21 13 13 7 13 18 14 18 21 24 25 27 26 25 23 21 20 19 14 9 10 10 9 9 10 11
32 33 21 10 5 6 9 9 9 8 12 16 18 16 15 14 18 11 12 10 10 7 8 7 15 19 20 21 22 21 20 19 20 16 11 10 10 11 9 9 9 10 10 11
24 13 15 4 6 5 8 17 15 11 12 16 17 15 13 9 7 4 4 5 6 9 9 15 13 15 17 18 18 19 17 12 11 12 12 11 10 10 10 9 9 10 11 14
14 8 6 10 11 13 10 16 18 14 13 18 24 24 15 20 9 8 7 11 8 10 12 10 10 13 15 16 15 13 11 12 12 11 10 10 10 10 10 10 10 12 15 17
10 4 5 10 11 14 13 15 14 16 13 19 23 16 8 9 6 8 8 7 6 6 5 6 7 12 14 12 12 12 10 10 10 10 10 10 10 10 10 11 13 15 18 22
12 12 13 13 12 10 11 12 11 16 16 18 12 10 8 7 7 8 7 7 6 6 7 12 13 12 8 10 9 8 10 11 11 10 11 11 12 12 12 15 17 19 23 27

GFSNW_700_spd_060.txt.gz
Wind_Speed
58 56 71 69 68 62 58 54 49 47 46 45 52 56 46 34 39 33 22 15 12 7 22 22 24 30 23 13 16 16 24 23 19 16 13 23 16 17 21 15 7 6 4 6
58 57 63 57 62 60 60 56 44 36 48 54 57 55 49 47 42 43 36 24 9 14 16 11 22 24 25 17 13 18 18 13 7 8 15 18 17 16 18 17 15 15 6 9
51 48 50 49 53 52 60 52 43 36 49 59 56 58 54 52 43 43 40 33 22 18 20 15 9 23 22 19 17 18 21 19 15 20 17 13 11 11 14 12 12 14 18 17
48 52 51 53 59 55 62 50 45 57 55 66 64 50 53 51 50 46 40 35 27 19 18 19 14 19 27 21 21 22 21 16 18 13 12 14 13 10 12 15 13 9 13 20
50 56 56 56 64 59 68 55 46 48 45 58 63 55 56 53 49 44 43 37 24 21 21 25 13 19 22 21 21 20 17 19 20 23 24 22 21 16 16 17 17 20 18 18
56 58 56 60 68 61 77 53 48 46 57 34 59 69 60 55 44 42 40 34 27 25 20 23 17 18 15 16 15 14 15 18 19 19 19 19 24 28 24 22 23 25 23 22
59 59 56 65 68 63 77 60 53 54 44 48 44 58 56 56 48 45 41 38 33 25 17 21 23 20 23 19 19 20 14 17 15 10 13 3 14 18 17 17 15 12 12 11
60 60 58 66 72 63 78 53 54 38 51 46 44 30 55 44 43 41 41 40 32 25 19 20 23 21 22 21 18 18 19 15 12 7 14 14 10 10 10 14 10 10 9 10
60 61 67 64 71 62 82 66 57 36 41 48 48 34 28 49 43 38 41 37 30 30 27 27 24 18 17 15 16 19 18 19 19 14 6 7 8 10 17 17 14 14 13 11
53 61 72 59 72 62 81 68 63 32 33 20 42 45 35 33 44 42 43 41 33 34 35 30 22 22 21 19 23 20 23 23 22 24 15 16 20 12 10 14 12 16 15 15
53 60 68 56 69 61 78 82 42 46 29 22 28 32 46 36 39 47 48 40 38 33 33 33 20 13 26 22 21 23 21 15 18 21 14 13 20 19 21 16 15 15 15 15
54 55 68 49 66 56 71 87 48 34 25 28 26 33 34 37 39 46 43 44 37 32 33 34 24 16 26 26 22 20 21 22 16 12 6 10 8 15 15 14 11 11 12 14
47 69 51 54 52 49 69 81 47 50 20 36 27 31 33 36 41 44 40 36 40 34 31 30 22 18 22 26 25 21 23 16 18 14 16 16 13 14 15 14 12 13 15 20
54 44 51 55 44 41 71 76 59 43 10 20 32 30 33 32 36 33 41 35 33 31 29 33 32 26 30 29 23 25 22 23 23 21 19 19 19 18 18 16 16 18 18 17
47 48 53 47 35 53 66 67 49 51 26 18 26 34 34 26 32 30 32 34 38 33 31 30 27 30 28 29 25 21 25 23 27 26 21 20 20 20 21 21 21 20 20 22
46 49 44 41 39 65 65 69 65 33 33 8 19 29 27 29 31 37 31 35 33 27 30 33 21 27 26 23 25 24 22 23 23 21 19 19 21 22 23 24 23 23 23 24
37 38 35 32 39 62 77 60 49 30 31 12 11 19 24 35 34 34 30 23 21 27 36 29 17 23 21 20 20 20 23 23 22 18 17 19 22 23 24 24 25 25 25 23
29 32 33 32 35 52 63 38 30 32 35 26 6 14 31 30 30 27 24 18 15 17 21 30 35 20 19 18 23 22 20 23 22 18 18 21 23 24 23 24 25 25 22 20
30 28 27 31 51 60 63 28 22 37 23 10 11 19 27 28 30 29 25 21 19 17 23 23 22 25 22 30 26 25 25 25 21 19 21 24 24 23 23 25 23 19 20 18
38 34 31 30 46 50 45 4 15 25 17 8 12 23 21 30 31 28 25 22 19 18 25 23 27 29 30 27 25 24 23 23 23 23 25 23 21 21 24 21 20 20 17 14
39 32 26 29 43 47 47 8 11 11 12 18 15 17 17 19 21 24 19 16 15 13 17 21 20 31 31 30 27 25 25 27 27 27 24 23 22 21 21 21 19 17 14 12
35 35 33 35 26 12 13 7 11 8 11 20 22 18 16 16 17 16 18 13 10 8 17 18 15 22 24 27 30 30 30 29 28 26 24 21 20 18 16 14 14 13 11 11
37 29 27 27 8 6 7 6 9 11 19 20 26 24 19 16 18 15 11 13 16 8 10 8 13 17 23 27 31 31 30 29 26 22 18 16 14 14 14 12 12 11 10 10
28 9 12 6 7 6 12 17 15 13 15 16 17 13 13 13 16 7 7 11 12 11 8 11 9 10 12 12 14 20 21 20 17 16 15 14 14 15 14 13 12 11 10 10
12 6 6 10 12 13 16 18 16 17 16 17 18 13 8 9 4 5 6 7 3 6 10 13 9 13 18 22 18 13 14 15 15 15 15 15 16 15 14 12 10 10 11 12
8 3 10 12 10 10 13 15 15 15 16 17 18 11 5 7 4 7 6 7 7 8 9 13 13 11 9 8 11 14 15 15 15 16 17 16 15 13 11 10 11 12 14 15
7 9 12 14 14 14 16 16 15 12 15 21 9 10 7 6 6 7 6 7 9 9 11 10 5 7 11 13 12 12 13 15 16 15 14 13 12 11 11 12 14 16 18 21

GFSNW_700_spd_063.txt.gz
Wind_Speed
45 38 55 43 52 51 55 55 57 56 50 51 50 60 49 34 42 33 25 15 15 22 25 23 30 29 19 19 18 20 21 17 24 28 22 20 24 24 18 12 7 7 6 13
49 41 47 46 45 45 53 56 50 41 51 59 58 56 55 44 44 46 38 27 14 15 9 29 26 23 26 25 17 19 20 14 18 15 19 20 14 19 18 20 21 17 8 11
51 45 46 50 47 53 53 50 44 37 48 63 57 53 50 54 45 47 45 40 25 14 16 13 17 25 27 24 24 21 19 18 19 16 18 18 22 23 18 18 21 20 24 26
54 46 44 61 50 62 55 54 50 52 58 68 58 52 53 52 52 47 46 46 42 27 15 16 14 13 17 24 23 24 24 20 23 22 14 16 18 18 17 16 19 18 19 18
55 47 48 55 56 68 57 57 46 50 53 66 62 45 55 53 50 43 44 47 43 36 28 15 9 16 16 20 22 23 30 16 20 17 15 15 19 22 19 18 20 20 21 22
54 47 47 47 62 76 62 52 43 54 53 50 58 69 55 56 47 52 47 33 41 36 28 16 16 16 14 18 24 25 28 25 19 20 19 20 22 31 31 32 29 29 29 29
53 45 44 46 68 81 48 58 56 46 50 54 64 56 51 55 50 50 39 36 34 37 24 19 16 19 19 20 23 24 26 21 17 11 10 2 19 21 23 27 31 32 32 31
52 46 39 59 78 74 32 58 61 45 39 53 48 48 51 53 51 51 45 29 36 31 30 20 15 20 23 26 24 26 23 22 16 9 17 13 9 9 13 13 16 15 14 15
49 46 40 68 74 75 49 60 69 28 38 49 48 25 36 49 55 46 47 37 24 35 32 27 23 18 20 17 23 26 23 22 23 14 6 7 10 13 18 23 24 21 18 15
46 42 51 62 77 74 62 56 69 37 40 23 38 52 31 25 44 53 44 39 35 30 25 30 27 23 22 25 28 23 24 24 25 23 15 11 16 16 14 14 17 22 21 17
41 44 65 64 75 69 58 62 64 45 24 39 38 41 38 34 30 42 42 33 43 40 33 34 26 18 20 24 26 31 33 25 24 23 16 13 16 19 24 20 17 13 13 16
42 56 70 61 68 69 56 70 66 49 27 39 27 33 41 45 34 23 35 42 35 37 30 28 29 16 21 28 27 30 32 34 27 19 15 17 9 7 11 17 20 15 10 13
43 55 61 58 72 64 53 72 68 42 25 35 20 30 37 41 43 33 33 32 37 37 36 33 27 25 27 20 25 27 31 26 30 23 23 21 18 14 11 12 13 15 14 15
45 48 58 55 65 57 50 68 74 39 13 27 36 23 32 38 44 43 34 33 29 35 35 36 31 33 31 32 28 31 31 32 30 28 24 20 18 17 15 13 13 14 15 17
38 42 46 68 58 57 46 61 68 37 18 10 23 28 23 23 25 33 31 27 31 34 36 36 30 29 23 24 33 39 33 35 33 28 22 19 14 13 14 15 16 18 19 21
37 44 43 50 44 55 39 51 68 52 27 5 16 26 26 23 21 29 30 26 31 35 33 28 29 30 30 22 34 34 35 33 26 23 20 16 15 16 17 18 21 23 24 24
37 45 42 48 57 54 43 47 54 46 27 3 13 13 24 23 23 27 35 32 35 37 36 34 26 26 30 30 26 21 32 29 24 22 21 19 19 19 20 22 23 24 25 26
40 42 49 37 40 33 34 41 44 45 31 15 4 6 13 26 25 28 34 34 30 32 36 37 24 20 23 31 29 16 24 23 21 23 23 22 19 20 23 24 25 26 27 26
42 43 40 30 29 32 38 29 50 35 32 23 19 11 15 24 31 34 34 32 28 24 33 28 26 36 32 40 28 22 16 17 20 20 28 25 23 24 26 26 27 27 26 25
34 31 29 32 26 35 45 26 22 21 45 18 26 27 20 25 40 34 32 27 20 11 16 15 24 25 23 20 20 22 23 24 24 27 30 29 31 28 27 26 25 25 24 22
29 31 22 27 24 34 54 18 7 12 16 30 35 23 21 24 31 30 21 13 12 9 13 18 17 29 25 21 24 24 24 28 31 31 29 32 29 25 21 23 23 22 22 20
27 31 36 31 21 14 19 13 8 11 15 21 24 28 22 22 24 17 21 13 11 8 15 21 21 27 25 23 25 29 29 31 33 32 30 27 25 20 20 20 21 21 20 19
37 30 20 25 8 12 14 14 8 10 21 27 28 26 26 25 23 12 12 11 12 10 11 10 20 20 23 27 27 29 31 32 32 30 27 24 16 18 19 18 17 17 18 18
15 14 21 7 8 9 10 16 15 19 25 29 28 26 17 16 15 7 6 8 6 10 9 14 12 19 20 22 25 26 27 28 25 22 17 14 15 14 16 19 19 20 18 15
11 11 14 5 13 15 18 18 17 19 22 25 23 19 9 11 6 7 5 6 3 4 6 10 15 13 13 12 12 13 16 17 18 18 16 15 15 17 20 21 20 15 13 12
6 9 17 21 21 21 20 19 20 21 24 25 20 10 7 6 6 7 7 8 6 6 8 9 10 11 14 13 13 14 14 15 15 13 13 18 20 20 19 15 14 14 13 14
8 17 16 16 19 21 19 18 20 23 28 21 9 8 6 8 6 8 9 8 10 14 14 11 10 10 9 8 10 12 12 12 14 17 20 19 17 15 14 14 14 14 15 16

GFSNW_700_spd_066.txt.gz
Wind_Speed
51 49 49 42 36 38 41 49 56 57 53 49 57 57 48 36 42 34 21 16 18 18 22 26 32 32 32 17 29 27 23 15 23 22 18 21 19 16 18 15 6 8 6 15
54 50 50 44 38 40 43 48 50 44 50 54 65 56 46 47 45 42 37 24 19 14 12 19 26 35 26 21 21 20 24 19 16 14 19 24 21 23 22 21 19 15 7 13
58 53 52 47 40 43 49 48 44 37 43 65 65 51 45 50 52 44 46 39 24 17 15 11 13 27 26 33 24 22 16 24 24 22 24 16 18 19 19 20 14 16 23 23
61 56 54 50 44 48 56 53 39 51 54 69 70 61 50 47 54 55 45 46 43 30 14 15 12 15 26 24 27 27 26 25 24 22 20 20 21 20 19 21 24 20 23 24
64 57 58 54 45 53 63 52 39 55 49 70 68 45 53 50 51 44 54 51 44 42 31 12 17 10 12 21 23 25 27 24 22 22 24 23 19 21 21 22 22 25 23 26
65 61 59 54 47 64 68 50 53 58 53 48 53 75 54 49 49 57 48 41 44 42 39 21 11 14 17 14 18 22 25 30 27 22 22 19 19 27 27 30 31 32 34 35
65 62 58 55 50 59 57 68 53 57 46 46 62 60 54 49 54 53 49 26 34 37 39 30 27 24 22 22 20 21 25 30 27 17 15 1 28 28 27 27 28 31 35 35
61 62 59 57 50 53 43 72 54 53 48 40 43 44 59 43 51 48 47 42 42 12 22 29 29 28 23 26 23 22 26 28 21 15 19 21 25 22 20 19 21 17 18 15
59 60 58 55 49 52 40 79 55 42 18 58 40 38 43 48 48 46 51 41 22 36 23 20 19 14 18 23 27 27 29 28 29 15 8 8 25 15 20 23 35 28 20 14
60 54 52 53 49 49 41 82 55 48 31 14 49 50 47 44 48 52 47 42 29 29 26 23 27 32 12 22 29 27 29 27 28 25 16 17 20 16 14 17 25 17 17 19
58 50 50 48 48 45 49 78 66 57 39 18 34 42 46 42 41 43 41 33 43 38 34 25 19 21 30 24 26 33 32 30 27 27 19 14 22 21 23 21 20 17 12 11
53 47 48 44 43 45 71 70 45 30 54 22 30 37 36 25 34 44 40 39 36 39 31 30 21 18 24 24 28 31 32 34 33 28 28 27 20 21 16 13 18 17 13 12
45 47 44 41 45 65 78 59 34 43 55 18 24 26 23 31 42 35 26 28 22 31 42 29 28 19 29 25 30 21 26 28 35 27 31 29 27 25 22 18 15 15 16 13
44 42 43 47 48 62 71 51 39 51 56 31 26 27 27 30 36 35 33 23 24 20 22 37 32 30 24 29 27 29 32 30 34 33 33 27 30 26 20 17 16 16 17 16
41 43 41 52 55 61 45 43 35 54 50 19 29 25 27 29 34 43 39 32 25 27 28 30 34 31 30 26 29 36 33 34 36 40 37 32 29 19 14 18 17 16 17 17
38 38 48 52 51 39 37 41 44 58 30 21 22 24 19 19 24 33 31 29 27 31 29 28 28 32 29 22 34 32 28 30 38 30 29 27 31 25 20 19 19 19 20 20
36 41 37 47 44 45 40 35 59 63 45 19 9 14 27 16 20 27 33 32 30 32 29 27 27 33 34 36 41 39 33 31 33 28 29 34 27 24 23 21 21 21 23 24
34 33 33 38 30 53 25 30 39 61 47 31 3 10 17 20 20 20 32 36 33 31 32 32 33 31 32 36 36 27 21 19 23 26 31 29 26 23 21 20 21 23 25 27
34 32 34 31 28 46 28 19 27 40 38 13 5 9 12 24 21 23 26 36 34 29 35 33 28 33 28 33 31 25 24 30 27 25 23 24 26 28 23 20 21 28 29 29
46 44 39 37 31 31 25 15 26 23 24 34 13 17 8 11 17 22 26 28 24 22 27 25 31 35 39 37 34 30 30 29 28 27 23 22 24 26 30 27 22 29 30 28
41 35 31 37 36 31 25 18 17 15 14 31 35 13 17 16 13 20 24 13 16 13 15 19 18 36 20 19 20 23 22 19 22 22 22 24 25 25 29 26 31 35 31 21
33 29 34 34 36 11 7 15 12 10 13 12 17 28 19 19 15 15 18 14 10 8 18 17 13 21 20 20 23 22 24 26 28 29 28 28 27 26 28 28 29 22 19 21
25 44 34 24 17 13 8 11 11 11 18 22 21 24 22 21 16 3 7 8 7 8 14 7 13 14 17 19 21 23 25 28 30 29 27 25 22 24 26 20 19 18 20 23
38 12 10 11 15 15 12 14 12 10 22 20 19 16 17 13 8 4 4 5 5 6 5 7 12 10 13 19 21 21 22 22 22 21 22 23 24 17 16 19 19 20 23 24
15 10 6 6 7 14 17 9 19 13 26 24 22 20 9 15 5 5 3 6 4 3 5 8 9 12 14 16 19 17 16 17 21 20 15 14 13 13 14 19 23 24 22 18
6 7 7 2 13 9 21 13 14 21 27 28 23 9 6 6 6 6 6 7 6 6 7 7 10 9 8 10 12 14 15 13 13 16 18 12 11 16 20 21 20 18 17 16
9 11 12 14 19 18 15 19 20 26 28 22 9 7 6 7 6 8 8 7 6 10 8 8 10 8 9 11 12 11 10 10 11 11 11 14 17 17 16 16 15 15 16 15

GFSNW_700_spd_069.txt.gz
Wind_Speed
51 48 50 47 43 35 33 30 39 38 48 48 57 65 57 33 47 32 27 20 22 16 18 23 29 33 22 14 32 34 30 14 18 21 13 16 18 16 12 8 5 9 9 16
49 48 49 48 44 39 39 37 38 28 40 55 62 66 56 50 36 45 39 30 19 18 17 16 23 28 28 15 24 32 30 17 18 13 17 24 19 20 18 19 19 17 10 10
52 53 55 52 46 42 43 45 42 36 36 64 68 54 55 47 42 42 47 38 21 18 15 18 13 22 25 29 22 25 25 28 22 19 22 16 17 23 24 22 14 18 24 25
55 55 60 57 49 46 48 55 41 46 52 60 71 62 55 52 41 50 42 47 40 26 14 12 16 16 23 28 30 26 24 20 19 22 24 25 23 22 18 19 19 24 26 28
54 56 63 60 52 48 57 55 45 54 36 62 65 48 51 52 53 50 53 51 44 39 28 9 13 12 13 20 27 33 34 28 25 24 24 23 21 22 21 18 20 23 25 31
49 57 63 64 58 56 65 61 54 44 63 35 51 74 58 45 46 54 43 52 47 40 37 29 22 14 8 10 13 20 29 30 29 24 26 23 21 26 24 24 25 29 34 36
48 55 65 66 62 64 63 59 59 49 52 51 50 60 53 53 46 49 51 41 42 47 40 36 37 32 23 18 19 17 17 22 26 20 19 5 28 25 21 23 29 29 31 32
59 56 68 67 65 61 61 52 58 60 43 50 51 41 52 34 44 50 44 44 38 32 26 32 35 41 31 29 24 24 21 20 18 16 21 22 19 23 23 23 38 27 26 18
57 61 69 65 64 60 57 50 56 65 42 46 50 32 40 52 43 42 44 36 29 25 12 13 12 24 21 9 14 26 25 26 26 14 10 9 29 26 24 20 33 27 20 23
56 62 69 59 63 56 54 53 55 61 45 44 36 42 40 36 43 47 46 42 24 33 35 24 16 17 27 22 18 22 27 27 28 29 20 20 21 18 18 14 32 20 16 11
53 60 61 58 61 53 55 54 53 69 41 38 40 38 34 36 53 49 44 37 39 27 29 27 18 16 22 30 21 28 32 28 25 27 21 17 23 22 25 30 25 22 16 12
51 56 54 58 53 52 51 53 46 68 60 41 27 35 42 36 39 36 40 48 40 42 30 26 20 19 19 29 39 29 24 32 30 32 27 29 24 23 24 20 24 20 17 11
51 53 53 57 48 51 48 55 43 64 67 42 32 14 47 38 38 33 33 37 35 38 45 25 28 18 33 22 34 38 40 32 31 31 35 33 31 29 26 27 26 21 18 17
50 49 51 48 49 49 49 53 41 55 53 50 30 24 38 33 37 41 38 36 34 26 24 40 32 27 29 27 32 29 31 30 30 36 35 28 27 26 26 29 26 23 20 18
48 46 43 49 46 43 43 37 37 48 44 25 45 10 33 35 36 32 30 34 26 29 20 32 34 32 25 30 30 35 36 34 32 36 32 28 30 27 36 31 24 22 20 20
43 42 42 40 41 40 33 33 50 43 29 24 25 15 22 26 33 30 33 31 32 28 27 26 29 30 28 27 32 33 25 24 24 26 28 28 31 30 27 23 25 24 23 21
40 39 37 32 33 35 34 33 43 27 14 33 11 19 25 26 28 34 30 31 33 32 29 30 28 28 31 34 36 29 29 32 28 29 29 28 31 31 27 23 26 24 25 26
34 33 37 35 31 28 34 32 31 35 24 45 10 8 24 23 27 35 35 34 31 32 34 35 33 28 28 27 30 33 32 31 28 27 29 26 34 35 28 27 25 26 26 27
34 39 35 36 29 36 31 26 26 20 27 30 5 7 9 20 32 32 33 35 34 30 37 35 29 35 25 19 25 22 19 28 31 31 36 26 29 27 26 27 24 26 27 30
35 34 36 33 34 32 19 15 21 16 21 40 7 5 8 13 18 12 19 29 29 27 29 29 38 36 35 33 26 24 21 20 23 24 20 24 27 22 21 18 17 26 25 27
38 31 24 26 40 32 18 14 12 9 15 31 37 16 4 9 16 16 12 10 15 17 24 27 19 28 31 33 25 22 20 24 24 22 24 25 28 30 32 24 23 30 30 32
33 28 29 34 37 22 8 11 16 9 14 8 21 20 8 1 1 4 8 10 7 7 22 17 13 17 16 16 23 23 28 24 25 25 25 22 26 26 26 27 25 27 31 31
33 39 20 23 13 13 8 12 18 17 14 18 18 11 14 11 7 4 6 7 6 12 14 7 12 14 12 17 21 24 24 25 25 27 28 28 25 21 22 25 27 27 25 25
34 18 13 11 7 8 4 10 15 13 10 13 15 13 11 13 7 7 3 5 10 6 8 7 9 14 17 18 20 20 19 22 23 23 21 18 18 19 21 20 20 20 22 22
9 11 9 9 9 10 10 12 13 13 8 15 20 19 10 14 6 6 5 5 3 5 5 5 5 11 12 12 9 7 8 8 10 12 14 15 13 10 10 14 19 23 23 20
5 5 14 18 13 9 9 10 8 9 25 29 23 11 7 4 6 4 3 6 3 3 3 2 4 6 8 8 7 6 6 6 9 9 9 9 11 11 14 19 22 21 19 16
4 10 16 15 12 12 14 15 17 24 29 27 13 7 4 7 4 5 5 5 5 6 6 7 9 9 9 8 7 6 6 5 7 9 11 11 9 10 12 12 11 13 16 16

GFSNW_700_spd_072.txt.gz
Wind_Speed
47 43 43 40 42 39 36 38 37 30 27 48 47 65 55 31 40 30 33 30 19 17 16 21 24 28 25 15 34 37 30 16 16 16 14 21 18 17 18 12 10 8 7 15
51 47 44 43 45 47 43 43 38 26 24 53 50 62 46 38 29 39 35 32 30 22 18 13 23 23 28 16 21 31 35 21 15 14 15 20 16 17 18 17 17 16 13 14
56 52 47 47 51 51 48 46 36 37 35 40 66 43 39 47 41 29 33 26 31 21 21 18 9 24 23 29 16 30 34 24 27 23 20 15 18 23 23 22 21 21 22 24
58 57 51 52 54 55 55 54 46 46 46 46 51 52 38 40 42 46 36 34 30 24 19 18 16 15 23 24 29 22 31 28 26 26 21 18 19 19 19 23 25 26 23 22
47 55 52 56 58 59 60 64 48 46 43 41 52 50 52 42 48 37 49 40 35 25 24 13 20 14 20 17 29 30 30 22 20 20 20 20 22 21 21 22 20 22 24 26
49 52 55 58 62 64 67 68 60 38 49 36 49 55 55 44 40 44 39 38 32 42 38 21 19 15 8 11 9 19 26 27 20 19 18 15 21 27 22 21 23 23 25 25
46 54 56 59 64 68 71 72 58 50 39 41 43 47 52 45 38 43 30 35 36 27 36 40 37 29 27 20 12 12 10 24 20 19 18 8 24 19 20 23 24 24 26 28
55 50 52 61 64 65 68 68 63 55 42 35 47 34 39 48 41 36 40 30 35 38 33 33 25 29 36 35 28 21 16 17 14 12 18 19 20 22 23 25 26 21 25 26
56 56 48 57 64 62 66 67 59 51 48 47 35 41 35 46 42 36 36 35 23 31 32 25 23 14 28 12 12 23 23 22 18 14 9 8 21 23 23 20 30 22 20 20
52 55 57 51 63 61 65 62 57 50 51 28 28 38 35 34 43 43 39 35 37 31 27 23 22 16 16 25 13 15 21 24 25 24 14 14 18 15 16 15 29 17 20 19
56 55 61 51 63 59 65 61 57 48 53 22 26 32 37 31 38 46 38 31 31 31 29 28 20 16 15 15 27 25 10 15 22 19 14 14 20 19 24 27 20 21 20 20
55 55 56 53 57 57 60 58 53 49 56 31 32 33 36 38 37 38 33 48 32 28 27 21 16 17 16 18 18 29 29 31 18 24 20 22 20 19 21 20 20 22 22 23
53 56 57 50 55 55 57 58 49 51 51 44 28 36 36 39 42 44 40 46 29 41 36 28 23 21 27 25 29 21 32 32 36 32 24 24 24 25 24 25 25 24 24 24
48 51 47 51 53 52 57 55 45 47 46 41 38 34 38 25 33 50 44 31 44 32 33 35 27 26 22 20 23 25 23 26 40 39 35 30 30 25 23 22 25 30 25 25
44 44 50 53 48 53 51 43 41 40 41 15 47 34 35 26 45 39 41 36 27 35 31 35 35 29 25 25 29 30 28 30 29 32 28 33 28 24 25 24 27 30 24 26
47 50 50 47 51 45 41 40 36 37 33 30 3 26 42 26 51 50 48 44 32 31 27 25 31 34 29 21 30 27 28 29 29 34 30 27 20 22 22 24 25 26 25 29
48 45 46 49 41 37 39 34 38 36 33 36 12 10 26 30 42 46 46 43 39 32 28 34 27 27 31 34 33 17 22 26 26 28 30 28 25 30 29 30 29 27 27 29
42 45 43 36 33 28 26 27 30 33 27 30 15 14 8 29 37 45 42 40 36 45 33 29 29 27 30 32 32 30 26 22 24 27 29 27 30 31 32 31 29 31 26 30
40 38 35 32 32 33 20 18 23 28 21 14 27 26 1 25 34 35 37 39 37 34 44 38 31 36 24 21 21 20 17 21 27 27 29 28 27 26 33 32 28 25 27 31
38 38 37 35 30 31 19 20 18 16 17 18 25 42 29 20 32 37 37 32 26 30 32 33 39 32 30 20 14 13 11 17 21 24 27 27 24 24 25 29 24 22 24 26
37 38 38 31 29 28 15 11 11 10 12 20 29 38 30 11 23 28 31 25 14 13 18 27 20 27 30 27 29 31 27 24 25 27 27 25 22 19 18 21 19 16 17 21
35 39 40 39 29 10 8 9 11 6 13 9 20 26 18 2 17 25 19 13 19 12 22 20 16 17 20 26 33 30 28 27 24 21 20 18 19 21 21 19 17 19 24 29
35 35 25 15 7 7 4 11 10 15 9 20 7 9 6 2 6 7 9 10 7 15 14 13 14 24 24 25 26 27 26 28 24 23 22 22 22 20 18 21 26 26 19 22
22 17 14 9 7 5 13 9 9 14 10 11 14 3 7 8 7 4 4 6 12 6 5 6 12 18 18 20 22 19 16 18 18 15 15 14 13 13 14 14 19 21 22 21
17 10 12 9 8 9 11 13 14 15 12 14 12 9 4 9 4 5 5 5 4 4 6 8 7 9 12 13 12 10 8 6 6 6 6 7 9 12 13 12 13 15 16 16
6 5 8 11 10 10 19 19 16 13 14 13 15 9 5 4 7 5 4 5 4 7 8 9 10 12 12 11 10 10 8 7 7 7 7 7 6 6 8 9 10 12 13 13
3 8 15 15 15 14 15 13 10 13 22 24 10 6 3 8 6 5 5 9 14 14 15 16 16 14 12 12 12 10 8 6 5 5 4 4 4 3 4 4 5 7 8 10

GFSNW_700_spd_075.txt.gz
Wind_Speed
52 48 44 37 36 35 39 40 40 35 31 33 41 59 65 46 33 29 31 28 21 24 21 14 26 23 27 15 34 37 33 19 21 25 22 23 24 23 24 20 18 15 19 20
50 46 47 43 40 40 44 47 43 35 33 42 40 43 66 41 34 37 33 29 26 15 22 13 21 27 23 21 32 35 33 30 22 19 20 17 23 23 21 23 21 20 14 15
42 43 49 50 48 46 48 53 46 42 42 40 40 44 49 46 45 33 38 34 26 25 17 21 11 18 23 26 17 31 33 28 32 26 26 21 24 25 26 26 24 22 27 25
50 46 46 54 53 53 54 61 54 50 51 56 47 35 38 51 48 42 31 36 33 28 20 22 23 12 18 22 28 27 28 37 28 30 24 19 21 22 25 29 28 30 27 27
52 48 48 52 56 58 62 67 54 46 41 37 43 39 40 39 48 48 46 37 38 29 27 20 24 23 13 11 20 28 25 27 32 29 26 24 23 22 22 23 23 26 25 26
47 54 50 52 60 64 68 70 68 36 41 33 38 48 40 46 37 43 45 40 32 35 25 18 20 25 19 16 8 13 19 28 26 27 26 26 28 27 24 23 24 23 26 23
44 50 58 55 58 68 70 73 54 48 38 42 41 38 38 39 49 40 39 36 40 31 25 23 23 21 29 24 8 7 13 19 25 18 19 14 21 21 21 24 26 23 24 22
46 45 54 58 56 65 70 73 71 55 40 31 36 34 35 34 38 42 37 43 27 28 21 24 20 21 27 26 23 19 13 13 17 18 22 23 23 25 23 22 23 23 24 22
50 48 47 54 54 63 69 71 68 49 46 47 27 33 29 31 41 42 35 33 30 31 23 22 24 18 20 20 13 19 20 19 21 15 18 18 28 25 17 17 27 23 21 20
50 50 49 54 55 59 69 69 63 60 43 32 25 24 34 28 30 44 41 39 34 34 33 29 26 25 22 25 29 12 20 21 26 22 14 14 16 17 17 17 27 11 12 14
51 49 47 52 54 58 66 69 64 62 44 21 29 22 20 28 30 41 40 32 35 32 31 32 22 21 28 25 25 31 16 17 21 21 20 14 18 18 20 22 15 16 16 15
51 49 48 51 49 58 63 65 55 52 53 30 25 35 31 31 29 33 38 52 42 32 28 23 23 18 21 23 23 23 30 21 17 19 16 17 19 22 21 18 17 18 18 19
52 48 51 50 45 57 63 60 54 52 50 43 31 28 30 30 29 43 46 43 30 34 29 20 19 20 20 22 25 19 23 24 31 27 29 23 18 17 18 18 20 22 20 20
53 48 52 51 44 54 59 58 53 50 50 33 19 30 31 32 32 44 44 37 37 21 27 28 25 25 20 23 21 25 25 17 22 25 24 24 27 28 22 20 20 21 21 21
50 47 50 53 49 55 54 50 43 44 42 26 34 21 32 29 32 43 46 37 41 27 33 36 30 20 16 17 19 23 22 23 25 21 20 23 28 27 30 32 28 29 27 25
47 45 50 51 49 56 56 50 47 42 45 29 12 23 39 36 31 29 48 42 39 28 31 31 27 24 20 19 26 23 24 22 21 21 19 21 19 18 19 26 26 22 26 25
47 49 47 44 49 45 47 37 41 41 39 33 21 13 11 28 33 29 41 43 34 28 33 31 25 27 27 30 29 22 14 20 20 25 26 27 28 28 24 23 24 26 30 30
47 44 44 42 47 49 36 29 26 35 31 22 15 8 10 24 38 36 36 54 39 32 26 23 25 24 29 28 27 33 25 18 25 24 23 24 23 25 28 28 28 30 32 30
43 44 46 44 38 36 28 19 16 18 25 15 21 15 12 7 26 31 45 41 40 29 32 25 19 27 22 19 26 18 16 22 25 29 20 23 26 26 29 30 26 29 32 32
40 40 41 39 29 23 18 13 12 17 24 17 18 19 24 16 8 33 38 30 33 32 32 24 26 24 22 16 18 19 22 23 22 20 22 27 30 28 30 32 30 28 27 25
40 40 34 33 30 27 17 12 11 10 11 13 22 18 25 26 15 29 35 27 21 20 28 25 24 23 18 27 31 19 22 20 18 19 21 22 24 27 29 25 22 19 21 19
36 33 40 34 27 6 6 11 7 8 9 6 8 15 19 25 16 16 23 23 15 10 22 24 13 27 32 29 28 31 33 31 30 30 27 25 23 23 26 24 18 18 17 16
34 42 24 12 5 4 7 7 10 6 7 10 15 17 15 6 7 7 22 11 10 15 16 12 18 25 26 26 29 32 35 38 36 32 28 26 23 23 21 20 17 19 18 19
22 12 9 6 4 3 5 10 14 9 4 16 16 2 7 8 11 8 8 9 14 12 8 10 18 24 27 24 24 26 27 28 28 26 24 20 19 16 11 9 10 12 17 18
7 6 7 7 6 6 5 9 14 19 14 8 11 7 7 3 3 5 7 6 3 5 7 16 16 16 17 17 17 16 16 17 15 13 12 11 8 8 9 12 12 9 8 8
9 4 5 5 4 5 4 10 14 20 16 9 11 8 5 4 7 5 4 5 4 11 16 16 17 17 16 16 15 15 13 12 11 8 10 9 9 6 4 3 3 4 3 3
3 1 5 6 3 4 12 14 14 17 20 19 9 5 2 6 5 4 4 10 19 19 19 19 18 16 15 13 13 13 13 12 11 10 8 5 3 2 2 2 2 2 2 5

GFSNW_700_spd_078.txt.gz
Wind_Speed
43 40 39 38 35 31 32 38 45 40 32 33 44 56 56 41 42 39 40 33 30 32 25 27 25 24 17 19 22 40 43 19 28 23 28 25 25 24 25 19 14 13 13 18
43 43 42 39 35 35 36 43 47 43 37 48 53 47 52 43 33 40 42 34 33 28 25 26 21 23 27 20 17 30 34 40 23 25 32 26 28 32 26 25 25 23 14 13
48 47 44 40 36 38 43 47 46 50 47 47 37 36 38 38 38 36 44 34 30 31 34 23 18 17 26 26 19 13 37 36 32 20 22 26 30 27 27 29 28 20 24 22
48 47 42 39 37 42 47 53 57 49 51 57 40 33 26 37 34 42 40 36 35 33 30 26 20 11 16 35 22 21 19 26 39 34 28 25 27 28 26 31 28 28 22 24
47 50 48 44 43 45 54 60 63 42 43 28 54 41 42 37 29 34 46 44 33 27 38 24 22 21 14 24 25 14 26 22 34 32 31 34 27 27 28 27 27 28 25 27
47 46 46 44 52 50 57 63 63 32 47 39 37 56 39 38 29 31 41 47 37 27 29 18 24 27 32 9 26 14 11 16 27 28 31 29 34 33 22 21 22 21 23 20
46 48 49 49 52 57 60 66 65 58 35 49 49 32 41 36 33 31 35 39 45 39 20 25 13 20 20 28 22 26 12 11 24 24 22 24 27 25 27 23 23 22 21 19
47 46 48 48 52 57 58 66 66 66 59 31 40 35 30 33 31 33 37 38 41 35 32 28 11 18 22 22 21 26 25 7 10 18 27 21 26 19 17 18 23 20 20 22
47 46 47 47 50 56 53 64 63 61 59 42 27 35 27 34 37 30 33 37 32 37 35 26 20 12 11 14 13 24 25 17 24 9 10 10 21 25 17 20 26 20 20 22
47 47 48 48 50 56 57 64 64 60 65 53 31 31 36 32 28 36 28 35 34 32 43 23 23 21 17 19 22 18 27 34 28 24 14 10 16 23 24 26 21 19 15 11
44 47 48 51 50 53 58 60 60 60 61 42 33 28 29 34 30 30 28 30 34 25 30 36 26 14 26 19 26 27 25 18 23 22 18 18 12 13 28 27 22 20 15 16
40 44 47 52 54 50 54 62 54 55 59 43 35 23 16 24 27 22 23 46 43 26 29 25 22 17 22 28 25 23 24 27 26 15 21 12 17 23 15 17 19 18 12 15
41 43 45 48 52 48 54 59 53 56 54 48 26 40 23 22 29 29 28 40 39 38 26 22 23 15 24 17 30 26 27 23 24 21 30 21 15 20 19 20 21 19 18 17
39 43 43 50 45 49 52 53 52 61 55 41 35 31 27 32 28 33 34 35 37 38 41 31 22 23 27 28 19 27 23 18 26 26 20 16 18 20 23 18 18 17 13 15
39 42 46 43 43 45 50 46 46 54 54 33 27 26 31 28 30 33 33 31 50 46 35 37 38 31 19 21 25 30 23 25 21 17 16 17 18 17 18 23 28 27 32 26
42 45 41 41 42 48 51 46 44 45 44 20 33 24 18 23 28 29 31 27 49 54 17 45 21 30 21 16 21 23 20 20 20 18 17 22 18 17 18 20 23 24 22 19
43 47 45 41 47 50 50 50 50 47 45 28 13 13 21 27 26 24 33 27 37 48 28 20 35 28 31 22 23 22 16 18 19 22 21 25 25 26 23 21 18 18 19 21
48 45 40 46 49 49 45 34 34 32 38 25 11 8 7 15 29 28 30 25 37 43 29 15 26 25 33 31 33 32 27 22 14 19 21 29 28 26 22 20 21 25 26 25
45 48 41 39 40 45 36 26 26 36 30 23 20 16 12 13 26 24 22 26 30 41 34 26 21 31 22 23 23 25 20 24 28 21 25 31 27 26 22 22 23 24 25 27
41 37 42 35 30 36 30 20 18 23 30 20 19 17 21 17 6 21 25 22 26 16 37 32 26 25 28 6 16 24 25 22 22 25 26 24 27 28 26 27 27 26 27 30
37 36 28 32 31 26 13 10 11 10 10 22 19 17 15 25 25 18 22 17 19 18 22 25 9 20 18 26 26 23 25 26 23 23 24 24 20 19 20 21 23 26 25 22
32 33 30 28 15 8 6 9 8 7 8 11 18 20 17 18 19 15 15 23 14 12 23 17 14 23 25 29 31 31 27 23 26 25 22 18 16 19 22 23 22 24 27 20
35 39 25 7 5 5 6 8 7 7 10 14 15 15 13 11 13 7 13 15 20 14 18 17 27 31 29 33 34 31 26 26 28 25 25 26 26 24 23 23 25 26 23 18
19 12 6 5 5 5 5 10 10 9 8 10 10 8 6 9 16 9 11 18 21 11 14 16 24 33 28 27 32 32 32 30 28 29 30 30 29 27 27 25 20 14 10 7
12 5 4 5 7 9 7 8 11 16 8 3 6 6 9 10 9 8 5 8 10 6 8 17 22 25 28 28 29 28 27 26 24 23 21 23 23 20 15 10 7 6 4 2
5 2 6 6 4 3 5 10 13 15 13 8 8 5 4 6 7 6 5 9 5 7 14 19 23 23 22 20 20 18 17 16 15 14 13 13 12 9 5 3 3 2 2 2
1 2 2 2 4 10 8 12 14 14 13 12 7 2 2 2 3 4 4 7 16 19 19 20 21 21 21 20 19 18 16 17 16 14 11 8 6 5 4 2 3 2 2 2

GFSNW_700_spd_081.txt.gz
Wind_Speed
41 41 41 41 40 37 28 34 39 40 24 35 46 55 49 48 37 27 31 41 39 37 32 31 37 35 27 19 28 41 38 24 29 39 21 26 37 31 29 23 16 11 9 10
45 45 45 43 40 34 34 38 42 40 33 47 52 47 44 43 43 37 37 34 33 43 36 28 30 19 28 16 24 37 34 32 19 27 27 26 44 36 32 27 30 21 8 13
43 42 41 39 38 35 35 39 38 44 41 52 44 45 48 47 37 35 35 38 30 35 38 26 30 15 21 32 18 21 32 31 36 26 26 23 18 34 31 26 29 25 24 19
40 40 40 40 40 37 38 46 52 45 36 54 48 47 43 36 40 34 30 39 36 35 30 31 30 30 18 24 28 28 30 24 35 29 30 28 31 29 29 30 29 29 32 28
45 44 45 45 45 39 45 54 59 46 52 37 48 52 50 38 22 23 27 38 33 35 33 31 33 33 22 18 28 32 21 25 28 31 31 28 25 31 30 35 33 30 30 25
43 43 44 45 44 45 51 56 59 50 38 49 41 49 52 44 30 28 28 27 29 36 39 17 29 28 27 24 24 33 23 12 22 25 34 29 27 34 31 23 27 28 24 22
39 40 40 39 45 51 56 59 59 58 54 35 52 48 37 41 44 35 28 30 31 31 37 21 34 29 20 15 26 24 28 13 14 13 17 14 15 20 20 25 30 19 14 13
40 40 42 45 47 51 56 57 61 62 62 50 34 42 46 37 28 46 34 31 28 23 21 29 22 28 34 18 17 25 33 15 11 6 20 14 19 21 20 24 22 23 22 21
45 46 47 48 51 52 52 58 50 59 60 64 39 35 30 36 39 34 41 32 25 22 24 29 21 14 12 11 9 20 21 20 13 1 1 7 23 19 16 16 22 15 18 21
45 46 47 49 50 48 53 57 58 43 60 58 56 28 39 27 31 32 30 31 29 31 29 29 26 19 16 8 14 18 19 18 22 15 7 12 15 22 20 20 11 17 16 17
44 44 45 48 52 49 51 53 56 47 53 53 54 55 37 33 35 35 28 32 30 27 33 31 22 20 23 23 13 21 22 19 19 19 9 9 12 11 24 21 23 25 26 20
46 48 48 47 46 50 51 52 51 51 42 47 42 52 37 36 32 33 28 28 26 27 31 31 28 19 20 27 20 16 29 25 18 21 21 4 15 22 11 20 13 11 19 22
39 39 42 50 47 45 47 50 49 46 43 51 50 47 53 29 33 31 33 29 26 30 33 29 28 17 26 19 29 27 17 20 19 19 17 25 28 17 27 26 18 21 20 23
34 36 39 45 48 46 48 50 49 45 45 38 42 41 43 29 26 36 31 29 28 25 28 37 26 22 15 32 23 21 25 21 22 20 21 11 19 14 22 33 21 25 19 18
30 33 38 42 46 46 48 46 41 46 38 35 45 34 39 40 17 27 33 27 27 27 32 35 30 26 19 24 32 34 27 28 18 18 16 19 17 16 13 15 20 21 21 26
32 36 37 39 43 47 45 39 36 42 40 27 34 34 28 27 27 23 33 31 29 28 30 38 50 29 28 12 26 28 31 26 19 17 14 17 19 18 17 14 19 23 25 27
34 37 37 39 43 46 44 42 41 38 35 28 22 19 25 28 28 30 27 27 31 32 32 39 43 38 27 31 29 25 19 24 25 23 21 18 17 21 24 20 17 16 16 19
38 40 44 43 42 38 38 38 34 41 48 30 11 14 27 30 23 21 20 23 26 32 31 33 52 28 32 36 38 34 26 28 29 16 24 24 24 25 26 25 24 24 21 21
41 43 45 43 43 35 31 30 33 35 29 16 19 20 16 18 21 23 21 18 22 20 25 30 39 25 29 27 21 34 33 31 25 20 22 18 20 20 24 26 22 21 19 20
44 50 55 42 48 34 28 30 42 38 34 20 20 23 17 10 10 23 24 24 18 16 22 20 30 48 23 12 19 26 32 34 33 33 31 29 29 28 26 26 25 22 20 21
41 44 41 43 38 35 23 15 15 15 15 24 23 24 19 18 13 15 15 13 13 12 14 16 16 25 23 25 24 23 27 27 25 25 27 26 25 26 21 17 18 20 20 20
34 43 43 37 26 10 7 9 9 7 10 11 24 22 20 18 15 14 9 13 12 8 19 15 9 18 27 33 35 25 24 22 20 22 21 22 21 17 14 13 16 18 17 15
35 34 22 11 6 5 6 8 9 9 15 18 20 27 24 21 19 13 10 13 12 12 17 13 19 24 23 29 29 29 19 20 18 17 20 20 20 20 18 19 20 19 20 19
20 11 10 6 5 6 6 10 13 13 13 13 12 14 15 17 11 10 6 6 8 7 6 12 20 24 26 27 29 26 24 25 26 22 23 25 26 24 23 23 18 20 20 17
9 6 7 7 9 9 13 11 14 13 13 14 11 12 11 12 9 8 7 10 7 13 17 13 29 23 31 33 30 26 27 30 31 32 29 24 22 23 23 24 21 16 13 11
6 7 10 9 7 8 9 10 12 16 9 8 12 8 5 7 5 7 7 6 7 13 19 23 19 26 25 27 25 22 20 23 22 20 20 20 18 15 15 16 13 10 8 5
5 7 8 6 4 1 5 8 11 11 10 10 7 4 4 3 3 4 5 7 9 13 18 22 26 24 23 22 21 22 20 18 18 18 19 19 17 14 12 9 9 7 6 5

GFSNW_700_spd_084.txt.gz
Wind_Speed
36 35 35 34 33 31 26 26 34 35 28 30 39 48 41 39 21 21 21 31 37 38 32 34 27 22 27 7 21 24 41 28 39 38 23 16 31 37 35 20 11 9 18 15
38 37 36 35 32 29 25 31 34 36 35 41 47 43 39 42 37 34 28 27 28 24 11 14 24 31 29 26 23 12 31 34 22 31 40 36 28 20 35 37 32 28 11 12
40 39 38 36 36 33 31 38 41 44 39 50 39 42 42 39 26 23 20 33 36 36 30 25 25 34 31 28 16 12 20 35 45 29 20 26 26 25 25 37 34 28 31 27
43 41 40 38 37 34 36 48 53 47 36 56 49 46 36 36 39 35 30 34 33 31 35 27 29 32 36 32 21 19 16 31 38 37 38 27 21 21 17 40 38 33 35 31
42 41 39 38 37 36 46 54 54 52 55 44 44 48 44 45 32 28 29 29 30 25 19 27 27 13 22 28 31 9 22 21 20 31 34 31 25 31 30 20 31 31 30 27
43 41 40 39 38 41 49 52 55 51 48 51 47 47 45 40 34 37 35 26 21 24 16 16 25 25 19 19 27 33 11 21 24 24 21 28 23 39 33 29 23 14 22 26
43 42 41 42 41 44 51 56 56 58 55 49 53 48 46 44 41 38 30 24 27 15 13 20 23 30 29 24 29 27 18 8 18 12 22 13 30 32 22 29 35 23 19 15
41 40 40 42 41 42 50 53 58 60 58 50 42 36 33 26 34 39 32 28 24 17 12 15 20 24 32 32 26 26 28 27 8 6 16 10 27 19 23 24 27 28 17 19
34 33 35 37 40 45 45 51 56 58 59 60 50 39 33 25 23 28 36 21 27 23 21 19 21 11 17 9 15 21 18 22 22 5 4 8 22 32 16 12 18 20 21 17
41 40 40 41 41 42 44 49 52 56 54 56 52 53 47 30 24 28 26 31 27 28 26 24 25 29 13 9 13 2 13 18 20 21 7 6 8 19 34 18 10 18 19 24
39 40 42 46 46 44 48 47 47 53 57 49 42 45 53 44 29 33 22 15 25 28 29 26 27 18 26 19 13 19 9 13 15 17 12 9 14 6 18 24 19 18 11 13
40 39 41 45 47 50 47 50 52 48 47 43 33 35 40 43 37 31 26 26 12 23 18 25 24 23 16 25 20 21 16 22 18 16 13 17 15 16 19 11 22 21 20 18
48 45 41 43 44 48 50 48 48 45 46 51 38 31 34 37 46 34 22 28 24 21 21 19 22 27 30 19 29 21 19 16 27 20 17 13 7 19 22 17 14 21 26 11
42 43 45 44 43 42 46 49 50 43 43 40 45 29 32 35 37 45 46 38 28 26 18 27 26 28 30 29 26 22 25 26 21 17 20 15 17 14 29 28 26 22 20 19
36 39 39 43 45 42 43 48 47 41 40 25 44 30 33 31 33 37 31 34 31 29 25 25 27 29 26 25 29 33 35 26 29 28 14 18 20 13 14 10 13 26 29 24
35 38 38 39 41 45 46 43 37 41 42 12 24 29 28 34 34 38 35 38 25 27 28 29 27 30 28 19 28 32 31 32 23 20 10 15 18 10 14 14 16 14 8 30
33 33 35 37 41 49 50 47 40 36 46 42 16 26 31 30 30 36 20 14 24 26 26 28 26 24 22 34 34 12 15 17 23 27 24 17 15 16 15 16 13 11 13 17
30 32 34 39 45 44 43 36 29 35 35 43 7 17 27 37 29 27 25 23 23 28 33 31 29 27 25 36 44 31 19 20 14 16 21 23 19 17 18 16 15 15 15 16
37 38 43 45 43 40 35 29 24 34 40 14 12 27 25 23 23 23 20 19 21 26 27 25 26 29 26 36 31 34 37 29 22 19 18 22 21 23 20 19 19 19 17 16
41 43 44 42 37 37 33 23 33 29 32 7 15 22 18 22 28 27 23 19 15 12 20 17 27 36 34 31 34 35 27 39 32 35 29 25 20 18 19 16 16 17 17 16
50 40 46 50 35 32 28 15 16 11 11 15 20 19 17 19 19 15 13 9 8 8 14 17 11 21 25 25 35 14 21 26 29 33 32 31 30 26 22 20 18 17 16 16
40 51 44 46 24 10 7 10 7 8 9 12 21 21 18 17 14 12 16 10 7 8 11 16 13 18 17 23 30 33 21 18 24 26 28 24 21 20 17 17 17 15 15 14
36 33 22 10 6 6 6 9 9 9 17 15 23 25 21 18 17 14 8 8 12 7 10 9 19 19 19 20 20 28 23 23 23 19 21 20 18 15 12 14 18 15 15 13
19 13 9 5 4 5 9 14 16 13 18 21 19 23 23 22 18 11 7 14 9 14 11 15 16 22 22 18 17 24 22 23 15 14 13 13 14 14 16 19 20 16 15 19
7 6 6 9 11 12 10 10 13 12 11 15 15 16 22 14 14 11 11 7 7 12 14 16 20 27 25 23 24 25 22 20 19 17 15 16 17 17 19 19 19 20 22 20
10 8 13 12 9 11 9 9 12 13 11 13 15 8 8 12 8 8 8 5 9 13 18 18 25 24 24 25 25 25 23 23 21 21 23 23 19 19 20 23 21 15 12 12
7 10 13 10 7 6 8 11 15 17 14 14 7 6 7 6 6 6 5 5 7 12 16 23 22 20 20 23 24 22 19 16 15 15 16 15 15 13 15 17 18 14 12 8

GFSNW_700_spd_087.txt.gz
Wind_Speed
34 33 31 29 28 26 27 25 29 26 18 27 35 42 38 38 32 30 23 26 31 34 30 25 22 26 26 13 23 22 10 12 24 41 26 12 29 41 41 27 8 12 20 20
31 32 32 31 30 30 25 29 30 29 27 33 39 36 34 34 36 30 23 22 14 7 9 12 11 19 24 24 30 16 17 5 13 25 30 43 43 25 23 36 27 32 14 17
30 31 32 33 33 31 29 31 31 35 35 39 35 36 35 32 29 29 29 36 29 28 28 22 18 18 14 18 24 29 35 27 25 19 17 19 29 30 26 24 27 23 33 32
34 34 34 34 34 31 30 38 43 38 23 42 41 37 38 33 34 32 23 25 25 23 26 27 31 34 28 24 25 30 36 23 21 26 34 26 19 27 27 28 24 28 32 36
35 35 35 37 36 32 40 48 49 45 45 40 37 42 45 38 29 26 31 32 28 22 23 20 21 17 17 16 12 18 26 25 19 20 20 37 42 36 28 27 18 19 32 39
38 39 39 39 37 40 49 53 54 49 41 43 47 50 44 45 34 33 34 31 25 25 17 12 14 16 19 22 23 18 15 21 14 20 11 17 24 42 41 39 37 17 22 35
42 42 41 41 41 43 49 53 55 56 53 38 46 47 47 45 40 37 29 23 19 5 13 23 19 20 21 22 29 23 19 19 18 7 10 5 19 22 32 41 44 41 32 20
41 41 40 41 42 44 50 53 55 56 58 52 50 45 42 38 38 38 35 31 24 21 15 23 21 16 18 24 26 26 22 23 12 5 17 15 9 16 23 30 35 38 30 29
38 38 38 39 41 42 49 54 56 56 56 61 51 45 42 39 36 29 28 21 22 27 26 29 17 8 4 6 6 16 18 19 20 17 8 8 10 23 9 13 30 33 31 28
31 33 34 35 37 39 45 52 54 53 58 57 45 51 47 38 32 25 19 12 22 24 26 27 23 19 14 9 7 9 12 20 24 20 10 8 9 8 14 15 10 18 23 20
36 35 34 34 37 39 41 46 49 53 55 49 40 46 44 39 36 29 25 19 21 13 24 25 25 15 14 16 19 11 17 9 6 7 6 9 13 10 8 20 25 6 15 23
36 36 36 39 37 39 38 43 46 48 42 48 46 46 27 36 35 32 34 23 2 11 12 20 14 20 16 11 21 22 22 17 17 22 10 13 5 11 18 4 19 22 9 11
37 36 37 38 39 45 46 42 40 43 38 40 50 45 38 34 32 31 34 37 30 17 16 13 16 22 19 24 31 25 25 16 14 9 17 18 12 12 15 21 13 26 15 12
42 41 38 39 43 43 46 46 46 44 43 41 39 37 42 29 30 36 35 33 30 27 23 22 22 21 17 22 22 29 22 16 16 16 18 14 11 14 16 17 23 13 12 7
41 45 43 43 39 36 44 47 49 44 42 23 37 48 39 34 30 36 38 36 37 30 31 30 26 25 27 27 24 33 28 27 19 25 22 23 23 14 23 14 16 23 27 16
40 41 44 46 43 36 42 39 46 47 40 39 33 20 30 36 35 38 35 33 31 33 36 34 32 30 18 16 26 28 24 31 25 26 23 20 10 11 19 16 15 16 20 19
39 37 39 44 43 44 45 41 40 44 34 33 28 12 33 28 23 31 32 31 31 31 31 38 30 26 24 28 34 28 20 21 24 28 32 30 20 16 16 16 11 8 15 17
32 39 41 41 47 43 43 36 30 28 38 32 23 10 23 36 33 33 33 28 34 25 28 18 22 20 24 29 35 25 26 23 21 22 20 20 24 20 18 18 14 11 12 9
43 46 43 44 43 41 44 28 18 20 38 29 20 8 22 34 34 33 29 25 27 15 17 19 19 27 28 33 27 24 19 26 21 19 20 15 17 18 21 15 16 15 16 13
45 48 50 43 41 40 41 15 17 25 34 23 25 22 13 32 31 19 16 22 14 10 14 13 27 40 38 32 29 24 20 24 27 26 25 20 19 13 15 18 18 15 15 14
42 42 34 39 35 34 30 12 17 15 15 23 27 19 22 25 25 20 17 10 8 6 11 15 13 28 28 25 28 25 22 21 27 29 33 29 23 19 17 17 15 14 15 13
45 44 42 37 34 10 7 16 11 8 13 14 13 16 26 28 26 16 17 8 8 4 8 9 11 21 21 24 21 24 23 21 18 29 26 21 22 24 21 20 17 15 15 13
38 39 29 12 8 7 6 7 8 11 23 24 26 26 23 24 18 9 9 9 9 7 8 9 21 16 17 22 20 21 20 19 17 11 17 21 27 26 21 21 17 14 14 16
17 6 6 5 5 5 9 14 14 22 21 26 28 24 19 15 14 7 5 8 6 7 10 21 19 17 18 20 17 11 11 18 17 13 16 23 26 25 20 19 21 15 14 18
5 5 6 9 11 14 13 14 13 12 15 20 22 23 18 14 8 7 8 6 8 9 14 22 17 18 15 17 21 17 5 11 14 10 19 23 19 17 10 12 10 10 13 15
4 6 14 14 13 12 9 11 11 11 9 16 15 9 7 10 7 8 11 7 9 9 12 16 18 21 21 25 21 16 13 13 13 11 9 5 7 11 12 11 12 15 17 15
8 10 11 11 10 10 10 14 14 12 13 16 10 8 9 8 8 9 9 9 13 14 14 15 18 24 25 24 22 17 15 16 15 13 11 12 13 11 13 16 17 15 15 14

GFSNW_700_spd_093.txt.gz
Wind_Speed
29 26 26 23 20 15 21 24 23 20 14 20 23 27 29 31 33 29 28 25 21 21 25 30 28 21 19 18 20 19 14 8 8 18 22 11 8 12 28 24 12 9 17 21
22 23 26 26 20 24 26 28 24 21 16 26 27 24 23 24 24 27 27 25 18 20 21 16 14 15 12 10 8 4 9 5 4 5 8 13 16 14 15 19 26 32 14 8
23 25 28 27 24 28 28 29 25 25 28 29 25 24 25 25 21 20 23 24 21 17 19 19 12 13 10 10 11 9 17 14 13 10 7 17 20 17 15 16 18 22 37 28
27 30 25 23 21 27 30 33 32 29 17 31 29 26 25 25 23 19 12 14 19 20 26 20 26 24 26 25 20 21 14 16 17 18 20 24 29 27 24 28 36 25 27 27
26 29 27 26 25 29 34 36 37 32 33 29 20 24 32 33 25 21 19 20 16 16 19 18 13 11 13 13 6 9 12 11 14 18 18 18 28 30 32 39 38 37 32 37
29 32 30 30 29 33 38 37 34 25 32 35 34 32 27 33 26 25 23 24 22 21 16 18 11 15 17 14 16 16 16 12 8 6 4 11 19 33 24 34 42 37 30 32
31 31 31 32 32 36 39 39 35 36 41 37 36 34 31 31 29 28 23 21 22 21 12 9 12 10 10 14 17 22 23 18 15 10 10 8 16 16 17 15 30 42 39 30
32 32 34 33 35 36 39 38 37 37 40 39 40 37 31 26 27 28 27 28 18 16 19 18 6 14 16 11 16 21 27 25 14 8 11 21 24 9 10 18 21 25 37 37
34 34 34 34 33 35 39 40 39 40 34 40 37 40 40 36 29 32 26 20 14 17 24 14 6 4 5 5 4 7 20 31 25 13 6 6 9 9 16 24 26 8 12 20
36 36 36 37 38 37 39 41 40 42 46 45 32 28 30 30 28 25 24 29 20 18 27 25 17 14 10 6 5 4 4 18 28 27 15 12 15 15 14 13 12 8 6 8
31 32 36 41 41 41 42 42 37 42 46 49 45 44 45 40 32 31 26 18 18 13 15 21 16 14 17 17 20 18 8 8 16 20 15 14 6 7 8 16 16 9 5 5
30 30 29 30 38 40 42 48 47 45 46 42 42 47 45 40 31 25 25 24 17 8 12 16 12 15 12 20 15 17 18 23 13 8 17 15 5 14 10 10 21 12 11 4
34 34 33 28 29 35 40 42 43 42 45 47 48 48 38 33 33 29 29 26 22 26 21 14 16 10 14 18 24 20 23 20 25 21 13 9 2 20 11 9 12 15 16 14
32 33 32 30 27 27 31 37 39 39 42 43 36 25 29 31 27 27 29 25 22 21 25 27 27 23 15 20 20 19 16 15 18 23 24 26 24 11 6 3 9 12 15 15
29 28 30 32 32 29 27 30 34 35 35 14 35 37 27 15 21 27 24 27 26 28 25 29 30 27 18 21 23 24 24 23 25 27 21 24 24 18 18 14 9 8 9 15
32 33 32 31 33 36 34 29 31 30 30 37 11 7 24 30 28 21 22 25 26 30 38 35 33 30 28 25 27 29 19 13 14 22 20 23 25 22 23 19 15 12 18 15
34 32 30 34 34 41 42 35 38 35 28 29 17 15 16 10 13 23 30 24 32 34 37 41 35 36 26 35 39 36 31 26 23 19 21 25 24 24 23 22 17 9 17 15
33 36 38 34 31 37 41 37 20 29 29 28 13 10 13 14 21 30 29 25 33 33 33 37 39 31 32 34 32 34 25 21 16 15 19 24 24 22 21 20 16 10 11 8
34 35 36 35 37 38 46 28 18 13 25 27 20 21 18 16 19 21 25 30 37 33 34 36 31 34 29 26 26 28 22 20 14 13 18 23 25 24 19 17 18 14 11 7
43 45 44 48 37 32 42 21 19 20 19 28 27 18 22 19 17 16 15 27 25 21 41 32 32 41 37 32 30 23 21 20 21 21 20 20 18 25 17 12 16 16 17 12
51 45 39 45 40 36 23 14 17 14 9 19 27 29 23 18 12 20 16 8 16 15 17 25 22 33 35 25 22 27 28 28 28 28 26 21 17 20 19 15 14 13 15 11
40 47 43 43 36 19 6 16 11 8 12 9 17 23 26 24 16 16 21 16 4 6 16 14 13 31 32 26 26 24 27 28 29 28 26 23 23 23 22 20 16 14 10 11
42 46 30 20 8 8 9 12 10 8 8 12 11 17 20 20 20 13 9 11 10 6 12 7 14 18 21 16 13 14 17 21 24 26 25 24 25 25 25 25 21 21 18 16
26 18 12 8 8 8 8 14 13 14 10 16 13 10 14 14 14 9 5 7 7 7 6 6 11 11 16 16 14 13 15 19 21 22 24 23 25 25 27 26 27 24 21 18
10 7 6 7 8 10 13 15 12 11 13 20 17 16 4 8 5 6 5 6 4 6 9 14 13 13 15 20 20 17 14 14 13 14 19 22 20 20 22 23 24 23 20 18
4 2 11 16 16 13 11 8 9 9 11 17 18 10 5 5 5 6 7 5 7 9 13 14 14 15 12 10 13 16 15 13 12 11 11 20 19 16 20 21 23 25 24 26
7 12 15 16 17 15 12 12 12 12 19 25 14 7 7 5 5 6 6 7 9 10 10 12 14 13 12 11 11 10 13 11 9 8 12 13 14 19 23 26 27 23 21 20